Time,TemperatureF,DewpointF,PressureIn,WindDirection,WindDirectionDegrees,WindSpeedMPH,WindSpeedGustMPH,Humidity,HourlyPrecipIn,Conditions,Clouds,dailyrainin,SoftwareType,DateUTC
2013-05-02 00:00:00,68.3,57.8,30.02,SE,124,0.0,1.0,69,0.00,,,0.00,VWS V14.01,2013-05-02 05:00:00,
2013-05-02 00:02:00,68.3,57.8,30.02,SE,124,0.0,0.0,69,0.00,,CLR,0.00,VWS V14.01,2013-05-02 05:02:00,
2013-05-02 00:03:00,68.2,57.7,30.02,SE,124,0.0,0.0,69,0.00,,CLR,0.00,VWS V14.01,2013-05-02 05:03:00,
2013-05-02 00:07:00,67.8,57.7,30.02,SE,124,0.0,0.0,70,0.00,,CLR,0.00,VWS V14.01,2013-05-02 05:07:00,
2013-05-02 00:08:00,67.8,58.1,30.02,SE,124,0.0,0.0,71,0.00,,CLR,0.00,VWS V14.01,2013-05-02 05:08:00,
2013-05-02 00:12:00,67.3,58.0,30.02,SE,124,0.0,0.0,72,0.00,,CLR,0.00,VWS V14.01,2013-05-02 05:12:00,
2013-05-02 00:13:00,67.2,57.9,30.02,SE,124,0.0,0.0,72,0.00,,CLR,0.00,VWS V14.01,2013-05-02 05:13:00,
2013-05-02 00:17:00,66.7,57.8,30.02,SE,124,0.0,0.0,73,0.00,,CLR,0.00,VWS V14.01,2013-05-02 05:17:00,
2013-05-02 00:18:00,66.5,58.0,30.02,SE,124,0.0,0.0,74,0.00,,CLR,0.00,VWS V14.01,2013-05-02 05:18:00,
2013-05-02 00:19:00,66.5,58.0,30.02,SE,124,0.0,0.0,74,0.00,,CLR,0.00,VWS V14.01,2013-05-02 05:19:00,
2013-05-02 00:22:00,66.2,58.0,30.02,SE,124,0.0,0.0,75,0.00,,CLR,0.00,VWS V14.01,2013-05-02 05:22:00,
2013-05-02 00:23:00,66.0,57.9,30.02,SE,124,0.0,0.0,75,0.00,,CLR,0.00,VWS V14.01,2013-05-02 05:23:00,
2013-05-02 00:24:00,66.0,57.9,30.02,SE,124,0.0,0.0,75,0.00,,CLR,0.00,VWS V14.01,2013-05-02 05:24:00,
2013-05-02 00:27:00,65.9,57.8,30.02,SE,124,0.0,0.0,75,0.00,,CLR,0.00,VWS V14.01,2013-05-02 05:27:00,
2013-05-02 00:28:00,65.9,57.8,30.02,SE,124,0.0,0.0,75,0.00,,CLR,0.00,VWS V14.01,2013-05-02 05:28:00,
2013-05-02 00:29:00,65.9,57.8,30.02,SE,124,0.0,0.0,75,0.00,,CLR,0.00,VWS V14.01,2013-05-02 05:29:00,
2013-05-02 00:30:00,65.9,57.8,30.03,SE,124,0.0,0.0,75,0.00,,,0.00,VWS V14.01,2013-05-02 05:30:00,
2013-05-02 00:32:00,66.0,57.9,30.03,SE,124,0.0,0.0,75,0.00,,CLR,0.00,VWS V14.01,2013-05-02 05:32:00,
2013-05-02 00:33:00,66.0,57.9,30.03,SE,124,0.0,0.0,75,0.00,,CLR,0.00,VWS V14.01,2013-05-02 05:33:00,
2013-05-02 00:35:00,66.0,57.9,30.03,SE,124,0.0,0.0,75,0.00,,CLR,0.00,VWS V14.01,2013-05-02 05:35:00,
2013-05-02 00:37:00,65.9,57.8,30.03,SE,124,0.0,0.0,75,0.00,,CLR,0.00,VWS V14.01,2013-05-02 05:37:00,
2013-05-02 00:38:00,65.9,57.8,30.03,SE,124,0.0,0.0,75,0.00,,CLR,0.00,VWS V14.01,2013-05-02 05:38:00,
2013-05-02 00:40:00,65.9,57.8,30.03,SE,124,0.0,0.0,75,0.00,,CLR,0.00,VWS V14.01,2013-05-02 05:40:00,
2013-05-02 00:42:00,65.7,57.6,30.03,SE,124,0.0,0.0,75,0.00,,CLR,0.00,VWS V14.01,2013-05-02 05:42:00,
2013-05-02 00:43:00,65.7,57.6,30.03,SE,124,0.0,0.0,75,0.00,,CLR,0.00,VWS V14.01,2013-05-02 05:43:00,
2013-05-02 00:45:00,65.7,57.6,30.03,SE,124,0.0,0.0,75,0.00,,CLR,0.00,VWS V14.01,2013-05-02 05:45:00,
2013-05-02 00:48:00,65.5,57.7,30.03,SE,124,0.0,0.0,76,0.00,,CLR,0.00,VWS V14.01,2013-05-02 05:48:00,
2013-05-02 00:49:00,65.4,57.7,30.03,SE,124,0.0,0.0,76,0.00,,CLR,0.00,VWS V14.01,2013-05-02 05:49:00,
2013-05-02 00:50:00,65.4,57.7,30.03,SE,124,0.0,0.0,76,0.00,,CLR,0.00,VWS V14.01,2013-05-02 05:50:00,
2013-05-02 00:53:00,65.1,57.7,30.03,SE,124,0.0,0.0,77,0.00,,CLR,0.00,VWS V14.01,2013-05-02 05:53:00,
2013-05-02 00:54:00,65.1,57.7,30.03,SE,124,0.0,0.0,77,0.00,,CLR,0.00,VWS V14.01,2013-05-02 05:54:00,
2013-05-02 00:55:00,64.9,57.5,30.03,SE,124,0.0,0.0,77,0.00,,CLR,0.00,VWS V14.01,2013-05-02 05:55:00,
2013-05-02 00:59:00,64.7,57.3,30.03,SE,124,0.0,0.0,77,0.00,,CLR,0.00,VWS V14.01,2013-05-02 05:59:00,
2013-05-02 01:00:00,64.6,57.6,30.03,SE,124,0.0,0.0,78,0.00,,CLR,0.00,VWS V14.01,2013-05-02 06:00:00,
2013-05-02 01:04:00,64.4,57.4,30.03,SE,124,0.0,0.0,78,0.00,,CLR,0.00,VWS V14.01,2013-05-02 06:04:00,
2013-05-02 01:05:00,64.2,57.2,30.03,SE,124,0.0,0.0,78,0.00,,CLR,0.00,VWS V14.01,2013-05-02 06:05:00,
2013-05-02 01:09:00,64.1,57.5,30.03,SE,124,0.0,0.0,79,0.00,,CLR,0.00,VWS V14.01,2013-05-02 06:09:00,
2013-05-02 01:10:00,63.9,57.6,30.03,SE,124,0.0,0.0,80,0.00,,CLR,0.00,VWS V14.01,2013-05-02 06:10:00,
2013-05-02 01:14:00,63.6,57.3,30.03,SE,124,0.0,0.0,80,0.00,,CLR,0.00,VWS V14.01,2013-05-02 06:14:00,
2013-05-02 01:16:00,63.4,57.5,30.03,SE,124,0.0,0.0,81,0.00,,CLR,0.00,VWS V14.01,2013-05-02 06:16:00,
2013-05-02 01:19:00,63.3,57.4,30.03,SE,124,0.0,0.0,81,0.00,,CLR,0.00,VWS V14.01,2013-05-02 06:19:00,
2013-05-02 01:20:00,63.3,57.4,30.03,SE,124,0.0,0.0,81,0.00,,CLR,0.00,VWS V14.01,2013-05-02 06:20:00,
2013-05-02 01:21:00,63.3,57.4,30.03,SE,124,0.0,0.0,81,0.00,,CLR,0.00,VWS V14.01,2013-05-02 06:21:00,
2013-05-02 01:24:00,63.1,57.2,30.03,SE,124,0.0,0.0,81,0.00,,CLR,0.00,VWS V14.01,2013-05-02 06:24:00,
2013-05-02 01:25:00,63.1,57.2,30.03,SE,124,0.0,0.0,81,0.00,,CLR,0.00,VWS V14.01,2013-05-02 06:25:00,
2013-05-02 01:26:00,63.0,57.4,30.03,SE,124,0.0,0.0,82,0.00,,CLR,0.00,VWS V14.01,2013-05-02 06:26:00,
2013-05-02 01:29:00,62.8,57.2,30.03,SE,124,0.0,0.0,82,0.00,,CLR,0.00,VWS V14.01,2013-05-02 06:29:00,
2013-05-02 01:30:00,62.8,57.2,30.02,SE,124,0.0,0.0,82,0.00,,CLR,0.00,VWS V14.01,2013-05-02 06:30:00,
2013-05-02 01:31:00,62.8,57.2,30.02,SE,124,0.0,0.0,82,0.00,,CLR,0.00,VWS V14.01,2013-05-02 06:31:00,
2013-05-02 01:35:00,62.6,57.0,30.02,SE,124,0.0,0.0,82,0.00,,CLR,0.00,VWS V14.01,2013-05-02 06:35:00,
2013-05-02 01:36:00,62.5,57.3,30.02,SE,124,0.0,0.0,83,0.00,,CLR,0.00,VWS V14.01,2013-05-02 06:36:00,
2013-05-02 01:40:00,62.3,57.1,30.02,SE,124,0.0,0.0,83,0.00,,CLR,0.00,VWS V14.01,2013-05-02 06:40:00,
2013-05-02 01:41:00,62.3,57.1,30.02,SE,124,0.0,0.0,83,0.00,,CLR,0.00,VWS V14.01,2013-05-02 06:41:00,
2013-05-02 01:45:00,62.2,57.3,30.02,SE,124,0.0,0.0,84,0.00,,CLR,0.00,VWS V14.01,2013-05-02 06:45:00,
2013-05-02 01:46:00,62.0,57.1,30.02,SE,124,0.0,0.0,84,0.00,,CLR,0.00,VWS V14.01,2013-05-02 06:46:00,
2013-05-02 01:50:00,62.0,57.1,30.02,SE,124,0.0,0.0,84,0.00,,CLR,0.00,VWS V14.01,2013-05-02 06:50:00,
2013-05-02 01:51:00,62.0,57.1,30.02,SE,124,0.0,0.0,84,0.00,,CLR,0.00,VWS V14.01,2013-05-02 06:51:00,
2013-05-02 01:52:00,62.0,57.1,30.02,SE,124,0.0,0.0,84,0.00,,CLR,0.00,VWS V14.01,2013-05-02 06:52:00,
2013-05-02 01:55:00,61.9,57.0,30.02,SE,124,0.0,0.0,84,0.00,,CLR,0.00,VWS V14.01,2013-05-02 06:55:00,
2013-05-02 01:56:00,61.9,57.3,30.02,SE,124,0.0,0.0,85,0.00,,CLR,0.00,VWS V14.01,2013-05-02 06:56:00,
2013-05-02 01:57:00,61.9,57.3,30.02,SE,124,0.0,0.0,85,0.00,,CLR,0.00,VWS V14.01,2013-05-02 06:57:00,
2013-05-02 02:00:00,61.7,57.2,30.01,SE,124,0.0,0.0,85,0.00,,CLR,0.00,VWS V14.01,2013-05-02 07:00:00,
2013-05-02 02:01:00,61.7,57.2,30.01,SE,124,0.0,0.0,85,0.00,,CLR,0.00,VWS V14.01,2013-05-02 07:01:00,
2013-05-02 02:02:00,61.7,57.2,30.01,SE,124,0.0,0.0,85,0.00,,CLR,0.00,VWS V14.01,2013-05-02 07:02:00,
2013-05-02 02:05:00,61.5,57.0,30.01,SE,124,0.0,0.0,85,0.00,,CLR,0.00,VWS V14.01,2013-05-02 07:05:00,
2013-05-02 02:06:00,61.5,57.0,30.01,SE,124,0.0,0.0,85,0.00,,CLR,0.00,VWS V14.01,2013-05-02 07:06:00,
2013-05-02 02:07:00,61.5,57.0,30.01,SE,124,0.0,0.0,85,0.00,,CLR,0.00,VWS V14.01,2013-05-02 07:07:00,
2013-05-02 02:10:00,61.4,56.9,30.01,SE,124,0.0,0.0,85,0.00,,CLR,0.00,VWS V14.01,2013-05-02 07:10:00,
2013-05-02 02:11:00,61.4,56.9,30.01,SE,124,0.0,0.0,85,0.00,,CLR,0.00,VWS V14.01,2013-05-02 07:11:00,
2013-05-02 02:12:00,61.4,56.9,30.01,SE,124,0.0,0.0,85,0.00,,CLR,0.00,VWS V14.01,2013-05-02 07:12:00,
2013-05-02 02:15:00,61.4,56.9,30.01,SE,124,0.0,0.0,85,0.00,,CLR,0.00,VWS V14.01,2013-05-02 07:15:00,
2013-05-02 02:16:00,61.2,56.7,30.01,SE,124,0.0,0.0,85,0.00,,CLR,0.00,VWS V14.01,2013-05-02 07:16:00,
2013-05-02 02:17:00,61.2,56.7,30.01,SE,124,0.0,0.0,85,0.00,,CLR,0.00,VWS V14.01,2013-05-02 07:17:00,
2013-05-02 02:20:00,61.2,57.0,30.01,SE,124,0.0,0.0,86,0.00,,CLR,0.00,VWS V14.01,2013-05-02 07:20:00,
2013-05-02 02:21:00,61.2,57.0,30.01,SE,124,0.0,0.0,86,0.00,,CLR,0.00,VWS V14.01,2013-05-02 07:21:00,
2013-05-02 02:22:00,61.1,56.9,30.01,SE,124,0.0,0.0,86,0.00,,CLR,0.00,VWS V14.01,2013-05-02 07:22:00,
2013-05-02 02:25:00,61.1,56.9,30.01,SE,124,0.0,0.0,86,0.00,,CLR,0.00,VWS V14.01,2013-05-02 07:25:00,
2013-05-02 02:26:00,61.1,56.9,30.01,SE,124,0.0,0.0,86,0.00,,CLR,0.00,VWS V14.01,2013-05-02 07:26:00,
2013-05-02 02:27:00,61.1,56.9,30.01,SE,124,0.0,0.0,86,0.00,,CLR,0.00,VWS V14.01,2013-05-02 07:27:00,
2013-05-02 02:28:00,60.9,56.7,30.01,SE,124,0.0,0.0,86,0.00,,CLR,0.00,VWS V14.01,2013-05-02 07:28:00,
2013-05-02 02:30:00,60.9,56.7,30.00,SE,124,0.0,0.0,86,0.00,,,0.00,VWS V14.01,2013-05-02 07:30:00,
2013-05-02 02:31:00,60.9,56.7,30.00,SE,124,0.0,0.0,86,0.00,,CLR,0.00,VWS V14.01,2013-05-02 07:31:00,
2013-05-02 02:32:00,60.9,56.7,30.00,SE,124,0.0,0.0,86,0.00,,CLR,0.00,VWS V14.01,2013-05-02 07:32:00,
2013-05-02 02:33:00,60.9,56.7,30.00,SE,124,0.0,0.0,86,0.00,,CLR,0.00,VWS V14.01,2013-05-02 07:33:00,
2013-05-02 02:36:00,60.8,56.9,30.00,SE,124,0.0,0.0,87,0.00,,CLR,0.00,VWS V14.01,2013-05-02 07:36:00,
2013-05-02 02:37:00,60.8,56.9,30.00,SE,124,0.0,0.0,87,0.00,,CLR,0.00,VWS V14.01,2013-05-02 07:37:00,
2013-05-02 02:38:00,60.8,56.9,30.00,SE,124,0.0,0.0,87,0.00,,CLR,0.00,VWS V14.01,2013-05-02 07:38:00,
2013-05-02 02:41:00,60.8,56.9,30.00,SE,124,0.0,0.0,87,0.00,,CLR,0.00,VWS V14.01,2013-05-02 07:41:00,
2013-05-02 02:42:00,60.8,56.9,30.00,SE,124,0.0,0.0,87,0.00,,CLR,0.00,VWS V14.01,2013-05-02 07:42:00,
2013-05-02 02:43:00,60.8,56.9,30.00,SE,124,0.0,0.0,87,0.00,,CLR,0.00,VWS V14.01,2013-05-02 07:43:00,
2013-05-02 02:46:00,60.6,56.7,30.00,SE,124,0.0,0.0,87,0.00,,CLR,0.00,VWS V14.01,2013-05-02 07:46:00,
2013-05-02 02:47:00,60.6,56.7,30.00,SE,124,0.0,0.0,87,0.00,,CLR,0.00,VWS V14.01,2013-05-02 07:47:00,
2013-05-02 02:48:00,60.6,56.7,30.00,SE,124,0.0,0.0,87,0.00,,CLR,0.00,VWS V14.01,2013-05-02 07:48:00,
2013-05-02 02:52:00,60.6,56.7,30.00,SE,124,0.0,0.0,87,0.00,,CLR,0.00,VWS V14.01,2013-05-02 07:52:00,
2013-05-02 02:53:00,60.4,56.5,30.00,SE,124,0.0,0.0,87,0.00,,CLR,0.00,VWS V14.01,2013-05-02 07:53:00,
2013-05-02 02:54:00,60.4,56.5,30.00,SE,124,0.0,0.0,87,0.00,,CLR,0.00,VWS V14.01,2013-05-02 07:54:00,
2013-05-02 02:57:00,60.4,56.8,30.00,SE,124,0.0,0.0,88,0.00,,CLR,0.00,VWS V14.01,2013-05-02 07:57:00,
2013-05-02 02:58:00,60.4,56.8,30.00,SE,124,0.0,0.0,88,0.00,,CLR,0.00,VWS V14.01,2013-05-02 07:58:00,
2013-05-02 02:59:00,60.3,56.7,30.00,SE,124,0.0,0.0,88,0.00,,CLR,0.00,VWS V14.01,2013-05-02 07:59:00,
2013-05-02 03:00:00,60.3,56.7,30.00,SE,124,0.0,0.0,88,0.00,,,0.00,VWS V14.01,2013-05-02 08:00:00,
2013-05-02 03:02:00,60.3,56.7,30.00,SE,124,0.0,0.0,88,0.00,,CLR,0.00,VWS V14.01,2013-05-02 08:02:00,
2013-05-02 03:03:00,60.3,56.7,30.00,SE,124,0.0,0.0,88,0.00,,CLR,0.00,VWS V14.01,2013-05-02 08:03:00,
2013-05-02 03:04:00,60.1,56.5,30.00,SE,124,0.0,0.0,88,0.00,,CLR,0.00,VWS V14.01,2013-05-02 08:04:00,
2013-05-02 03:07:00,60.1,56.5,30.00,SE,124,0.0,0.0,88,0.00,,CLR,0.00,VWS V14.01,2013-05-02 08:07:00,
2013-05-02 03:08:00,60.0,56.4,30.00,SE,124,0.0,0.0,88,0.00,,CLR,0.00,VWS V14.01,2013-05-02 08:08:00,
2013-05-02 03:09:00,60.0,56.4,30.00,SE,124,0.0,0.0,88,0.00,,CLR,0.00,VWS V14.01,2013-05-02 08:09:00,
2013-05-02 03:12:00,59.8,56.2,30.00,SE,124,0.0,0.0,88,0.00,,CLR,0.00,VWS V14.01,2013-05-02 08:12:00,
2013-05-02 03:13:00,59.8,56.2,30.00,SE,124,0.0,0.0,88,0.00,,CLR,0.00,VWS V14.01,2013-05-02 08:13:00,
2013-05-02 03:14:00,59.8,56.2,30.00,SE,124,0.0,0.0,88,0.00,,CLR,0.00,VWS V14.01,2013-05-02 08:14:00,
2013-05-02 03:17:00,59.8,56.2,30.00,SE,124,0.0,0.0,88,0.00,,CLR,0.00,VWS V14.01,2013-05-02 08:17:00,
2013-05-02 03:18:00,59.8,56.2,30.00,SE,124,0.0,0.0,88,0.00,,CLR,0.00,VWS V14.01,2013-05-02 08:18:00,
2013-05-02 03:19:00,59.8,56.2,30.00,SE,124,0.0,0.0,88,0.00,,CLR,0.00,VWS V14.01,2013-05-02 08:19:00,
2013-05-02 03:22:00,59.7,56.5,30.00,SE,124,0.0,0.0,89,0.00,,CLR,0.00,VWS V14.01,2013-05-02 08:22:00,
2013-05-02 03:23:00,59.7,56.5,30.00,SE,124,0.0,0.0,89,0.00,,CLR,0.00,VWS V14.01,2013-05-02 08:23:00,
2013-05-02 03:24:00,59.7,56.5,30.00,SE,124,0.0,0.0,89,0.00,,CLR,0.00,VWS V14.01,2013-05-02 08:24:00,
2013-05-02 03:27:00,59.7,56.5,30.00,SE,124,0.0,0.0,89,0.00,,CLR,0.00,VWS V14.01,2013-05-02 08:27:00,
2013-05-02 03:29:00,59.7,56.5,30.00,SE,124,0.0,0.0,89,0.00,,CLR,0.00,VWS V14.01,2013-05-02 08:29:00,
2013-05-02 03:30:00,59.5,56.3,30.00,SE,124,0.0,0.0,89,0.00,,,0.00,VWS V14.01,2013-05-02 08:30:00,
2013-05-02 03:32:00,59.5,56.3,30.00,SE,124,0.0,0.0,89,0.00,,CLR,0.00,VWS V14.01,2013-05-02 08:32:00,
2013-05-02 03:34:00,59.5,56.3,30.00,SE,124,0.0,0.0,89,0.00,,CLR,0.00,VWS V14.01,2013-05-02 08:34:00,
2013-05-02 03:38:00,59.4,56.2,30.00,SE,124,0.0,0.0,89,0.00,,CLR,0.00,VWS V14.01,2013-05-02 08:38:00,
2013-05-02 03:39:00,59.4,56.2,30.00,SE,124,0.0,0.0,89,0.00,,CLR,0.00,VWS V14.01,2013-05-02 08:39:00,
2013-05-02 03:40:00,59.4,56.2,30.00,SE,124,0.0,0.0,89,0.00,,CLR,0.00,VWS V14.01,2013-05-02 08:40:00,
2013-05-02 03:43:00,59.4,56.2,30.00,SE,124,0.0,0.0,89,0.00,,CLR,0.00,VWS V14.01,2013-05-02 08:43:00,
2013-05-02 03:44:00,59.4,56.2,30.00,SE,124,0.0,0.0,89,0.00,,CLR,0.00,VWS V14.01,2013-05-02 08:44:00,
2013-05-02 03:45:00,59.4,56.2,30.00,SE,124,0.0,0.0,89,0.00,,CLR,0.00,VWS V14.01,2013-05-02 08:45:00,
2013-05-02 03:48:00,59.2,56.0,30.00,SE,124,0.0,0.0,89,0.00,,CLR,0.00,VWS V14.01,2013-05-02 08:48:00,
2013-05-02 03:49:00,59.2,56.0,30.00,SE,124,0.0,0.0,89,0.00,,CLR,0.00,VWS V14.01,2013-05-02 08:49:00,
2013-05-02 03:50:00,59.2,56.0,30.00,SE,124,0.0,0.0,89,0.00,,CLR,0.00,VWS V14.01,2013-05-02 08:50:00,
2013-05-02 03:53:00,59.2,56.0,30.00,SE,124,0.0,0.0,89,0.00,,CLR,0.00,VWS V14.01,2013-05-02 08:53:00,
2013-05-02 03:54:00,59.2,56.0,30.00,SE,124,0.0,0.0,89,0.00,,CLR,0.00,VWS V14.01,2013-05-02 08:54:00,
2013-05-02 03:55:00,59.2,56.0,30.00,SE,124,0.0,0.0,89,0.00,,CLR,0.00,VWS V14.01,2013-05-02 08:55:00,
2013-05-02 03:56:00,59.2,56.0,30.00,SE,124,0.0,0.0,89,0.00,,CLR,0.00,VWS V14.01,2013-05-02 08:56:00,
2013-05-02 03:58:00,59.2,56.3,30.00,SE,124,0.0,0.0,90,0.00,,CLR,0.00,VWS V14.01,2013-05-02 08:58:00,
2013-05-02 04:00:00,59.2,56.3,30.00,SE,124,0.0,0.0,90,0.00,,CLR,0.00,VWS V14.01,2013-05-02 09:00:00,
2013-05-02 04:01:00,59.2,56.3,30.00,SE,124,0.0,0.0,90,0.00,,CLR,0.00,VWS V14.01,2013-05-02 09:01:00,
2013-05-02 04:04:00,59.1,56.2,30.00,SE,124,0.0,0.0,90,0.00,,CLR,0.00,VWS V14.01,2013-05-02 09:04:00,
2013-05-02 04:05:00,59.1,56.2,30.00,SE,124,0.0,0.0,90,0.00,,CLR,0.00,VWS V14.01,2013-05-02 09:05:00,
2013-05-02 04:06:00,59.2,56.3,30.00,SE,124,0.0,0.0,90,0.00,,CLR,0.00,VWS V14.01,2013-05-02 09:06:00,
2013-05-02 04:09:00,59.2,56.3,30.00,SE,124,0.0,0.0,90,0.00,,CLR,0.00,VWS V14.01,2013-05-02 09:09:00,
2013-05-02 04:10:00,59.2,56.3,30.00,SE,124,0.0,0.0,90,0.00,,CLR,0.00,VWS V14.01,2013-05-02 09:10:00,
2013-05-02 04:11:00,59.2,56.3,30.00,SE,124,0.0,0.0,90,0.00,,CLR,0.00,VWS V14.01,2013-05-02 09:11:00,
2013-05-02 04:14:00,59.1,56.2,30.00,SE,124,0.0,0.0,90,0.00,,CLR,0.00,VWS V14.01,2013-05-02 09:14:00,
2013-05-02 04:15:00,59.1,56.2,30.00,SE,124,0.0,0.0,90,0.00,,CLR,0.00,VWS V14.01,2013-05-02 09:15:00,
2013-05-02 04:16:00,59.1,56.2,30.00,SE,124,0.0,0.0,90,0.00,,CLR,0.00,VWS V14.01,2013-05-02 09:16:00,
2013-05-02 04:20:00,59.1,56.2,30.00,SE,124,0.0,0.0,90,0.00,,CLR,0.00,VWS V14.01,2013-05-02 09:20:00,
2013-05-02 04:21:00,58.9,56.0,30.00,SE,124,0.0,0.0,90,0.00,,CLR,0.00,VWS V14.01,2013-05-02 09:21:00,
2013-05-02 04:25:00,58.9,56.0,30.00,SE,124,0.0,0.0,90,0.00,,CLR,0.00,VWS V14.01,2013-05-02 09:25:00,
2013-05-02 04:26:00,58.9,56.0,30.00,SE,124,0.0,0.0,90,0.00,,CLR,0.00,VWS V14.01,2013-05-02 09:26:00,
2013-05-02 04:30:00,58.8,55.9,30.00,SE,124,0.0,0.0,90,0.00,,CLR,0.00,VWS V14.01,2013-05-02 09:30:00,
2013-05-02 04:31:00,58.8,55.9,30.00,SE,124,0.0,0.0,90,0.00,,CLR,0.00,VWS V14.01,2013-05-02 09:31:00,
2013-05-02 04:35:00,58.6,55.7,30.00,SE,124,0.0,0.0,90,0.00,,CLR,0.00,VWS V14.01,2013-05-02 09:35:00,
2013-05-02 04:36:00,58.6,55.7,30.00,SE,124,0.0,0.0,90,0.00,,CLR,0.00,VWS V14.01,2013-05-02 09:36:00,
2013-05-02 04:37:00,58.5,55.6,30.00,SE,124,0.0,0.0,90,0.00,,CLR,0.00,VWS V14.01,2013-05-02 09:37:00,
2013-05-02 04:40:00,58.5,55.6,30.00,SE,124,0.0,0.0,90,0.00,,CLR,0.00,VWS V14.01,2013-05-02 09:40:00,
2013-05-02 04:41:00,58.3,55.4,30.00,SE,124,0.0,0.0,90,0.00,,CLR,0.00,VWS V14.01,2013-05-02 09:41:00,
2013-05-02 04:42:00,58.3,55.4,30.00,SE,124,0.0,0.0,90,0.00,,CLR,0.00,VWS V14.01,2013-05-02 09:42:00,
2013-05-02 04:45:00,58.2,55.6,30.01,SE,124,0.0,0.0,91,0.00,,CLR,0.00,VWS V14.01,2013-05-02 09:45:00,
2013-05-02 04:46:00,58.2,55.6,30.01,SE,124,0.0,0.0,91,0.00,,CLR,0.00,VWS V14.01,2013-05-02 09:46:00,
2013-05-02 04:47:00,58.2,55.6,30.01,SE,124,0.0,0.0,91,0.00,,CLR,0.00,VWS V14.01,2013-05-02 09:47:00,
2013-05-02 04:51:00,58.0,55.4,30.01,SE,124,0.0,0.0,91,0.00,,CLR,0.00,VWS V14.01,2013-05-02 09:51:00,
2013-05-02 04:52:00,58.0,55.4,30.01,SE,124,0.0,0.0,91,0.00,,CLR,0.00,VWS V14.01,2013-05-02 09:52:00,
2013-05-02 04:56:00,57.9,55.3,30.01,SE,124,0.0,0.0,91,0.00,,CLR,0.00,VWS V14.01,2013-05-02 09:56:00,
2013-05-02 04:57:00,58.0,55.4,30.01,SE,124,0.0,0.0,91,0.00,,CLR,0.00,VWS V14.01,2013-05-02 09:57:00,
2013-05-02 05:00:00,58.0,55.4,30.01,SE,124,0.0,0.0,91,0.00,,,0.00,VWS V14.01,2013-05-02 10:00:00,
2013-05-02 05:01:00,58.0,55.4,30.01,SE,124,0.0,0.0,91,0.00,,CLR,0.00,VWS V14.01,2013-05-02 10:01:00,
2013-05-02 05:02:00,58.0,55.4,30.01,SE,124,0.0,0.0,91,0.00,,CLR,0.00,VWS V14.01,2013-05-02 10:02:00,
2013-05-02 05:03:00,58.0,55.4,30.01,SE,124,0.0,0.0,91,0.00,,CLR,0.00,VWS V14.01,2013-05-02 10:03:00,
2013-05-02 05:06:00,58.0,55.4,30.01,SE,124,0.0,0.0,91,0.00,,CLR,0.00,VWS V14.01,2013-05-02 10:06:00,
2013-05-02 05:07:00,58.0,55.4,30.01,SE,124,0.0,0.0,91,0.00,,CLR,0.00,VWS V14.01,2013-05-02 10:07:00,
2013-05-02 05:08:00,57.9,55.3,30.01,SE,124,0.0,0.0,91,0.00,,CLR,0.00,VWS V14.01,2013-05-02 10:08:00,
2013-05-02 05:11:00,57.9,55.6,30.01,SE,124,0.0,0.0,92,0.00,,CLR,0.00,VWS V14.01,2013-05-02 10:11:00,
2013-05-02 05:12:00,57.9,55.6,30.01,SE,124,0.0,0.0,92,0.00,,CLR,0.00,VWS V14.01,2013-05-02 10:12:00,
2013-05-02 05:13:00,57.9,55.6,30.01,SE,124,0.0,0.0,92,0.00,,CLR,0.00,VWS V14.01,2013-05-02 10:13:00,
2013-05-02 05:16:00,57.9,55.6,30.01,SE,124,0.0,0.0,92,0.00,,CLR,0.00,VWS V14.01,2013-05-02 10:16:00,
2013-05-02 05:17:00,57.9,55.6,30.01,SE,124,0.0,0.0,92,0.00,,CLR,0.00,VWS V14.01,2013-05-02 10:17:00,
2013-05-02 05:18:00,57.9,55.6,30.01,SE,124,0.0,0.0,92,0.00,,CLR,0.00,VWS V14.01,2013-05-02 10:18:00,
2013-05-02 05:21:00,57.9,55.6,30.01,SE,124,0.0,0.0,92,0.00,,CLR,0.00,VWS V14.01,2013-05-02 10:21:00,
2013-05-02 05:22:00,57.9,55.6,30.01,SE,124,0.0,0.0,92,0.00,,CLR,0.00,VWS V14.01,2013-05-02 10:22:00,
2013-05-02 05:23:00,57.9,55.6,30.01,SE,124,0.0,0.0,92,0.00,,CLR,0.00,VWS V14.01,2013-05-02 10:23:00,
2013-05-02 05:26:00,57.9,55.6,30.01,SE,124,0.0,0.0,92,0.00,,CLR,0.00,VWS V14.01,2013-05-02 10:26:00,
2013-05-02 05:27:00,57.9,55.6,30.01,SE,124,0.0,0.0,92,0.00,,CLR,0.00,VWS V14.01,2013-05-02 10:27:00,
2013-05-02 05:28:00,57.9,55.6,30.01,SE,124,0.0,0.0,92,0.00,,CLR,0.00,VWS V14.01,2013-05-02 10:28:00,
2013-05-02 05:30:00,57.7,55.4,30.01,SE,124,0.0,0.0,92,0.00,,,0.00,VWS V14.01,2013-05-02 10:30:00,
2013-05-02 05:31:00,57.7,55.4,30.01,SE,124,0.0,0.0,92,0.00,,CLR,0.00,VWS V14.01,2013-05-02 10:31:00,
2013-05-02 05:32:00,57.7,55.4,30.01,SE,124,0.0,0.0,92,0.00,,CLR,0.00,VWS V14.01,2013-05-02 10:32:00,
2013-05-02 05:33:00,57.7,55.4,30.01,SE,124,0.0,0.0,92,0.00,,CLR,0.00,VWS V14.01,2013-05-02 10:33:00,
2013-05-02 05:37:00,57.7,55.4,30.01,SE,124,0.0,0.0,92,0.00,,CLR,0.00,VWS V14.01,2013-05-02 10:37:00,
2013-05-02 05:38:00,57.5,55.2,30.01,SE,124,0.0,0.0,92,0.00,,CLR,0.00,VWS V14.01,2013-05-02 10:38:00,
2013-05-02 05:39:00,57.5,55.2,30.01,SE,124,0.0,0.0,92,0.00,,CLR,0.00,VWS V14.01,2013-05-02 10:39:00,
2013-05-02 05:42:00,57.5,55.2,30.01,SE,124,0.0,0.0,92,0.00,,CLR,0.00,VWS V14.01,2013-05-02 10:42:00,
2013-05-02 05:43:00,57.5,55.2,30.01,SE,124,0.0,0.0,92,0.00,,CLR,0.00,VWS V14.01,2013-05-02 10:43:00,
2013-05-02 05:45:00,57.5,55.2,30.02,SE,124,0.0,0.0,92,0.00,,CLR,0.00,VWS V14.01,2013-05-02 10:45:00,
2013-05-02 05:47:00,57.5,55.2,30.02,SE,124,0.0,0.0,92,0.00,,CLR,0.00,VWS V14.01,2013-05-02 10:47:00,
2013-05-02 05:48:00,57.5,55.2,30.02,SE,124,0.0,0.0,92,0.00,,CLR,0.00,VWS V14.01,2013-05-02 10:48:00,
2013-05-02 05:50:00,57.5,55.2,30.02,SE,124,0.0,0.0,92,0.00,,CLR,0.00,VWS V14.01,2013-05-02 10:50:00,
2013-05-02 05:52:00,57.5,55.2,30.02,SE,124,0.0,0.0,92,0.00,,CLR,0.00,VWS V14.01,2013-05-02 10:52:00,
2013-05-02 05:53:00,57.5,55.2,30.02,SE,124,0.0,0.0,92,0.00,,CLR,0.00,VWS V14.01,2013-05-02 10:53:00,
2013-05-02 05:55:00,57.4,55.1,30.02,SE,124,0.0,0.0,92,0.00,,CLR,0.00,VWS V14.01,2013-05-02 10:55:00,
2013-05-02 05:57:00,57.4,55.1,30.02,SE,124,0.0,0.0,92,0.00,,CLR,0.00,VWS V14.01,2013-05-02 10:57:00,
2013-05-02 05:58:00,57.4,55.1,30.02,SE,124,0.0,0.0,92,0.00,,CLR,0.00,VWS V14.01,2013-05-02 10:58:00,
2013-05-02 06:00:00,57.5,55.2,30.02,SE,124,0.0,0.0,92,0.00,,CLR,0.00,VWS V14.01,2013-05-02 11:00:00,
2013-05-02 06:02:00,57.5,55.2,30.02,SE,124,0.0,0.0,92,0.00,,CLR,0.00,VWS V14.01,2013-05-02 11:02:00,
2013-05-02 06:03:00,57.5,55.2,30.02,SE,124,0.0,0.0,92,0.00,,CLR,0.00,VWS V14.01,2013-05-02 11:03:00,
2013-05-02 06:05:00,57.5,55.2,30.02,SE,124,0.0,0.0,92,0.00,,CLR,0.00,VWS V14.01,2013-05-02 11:05:00,
2013-05-02 06:08:00,57.7,55.4,30.02,SE,124,0.0,0.0,92,0.00,,CLR,0.00,VWS V14.01,2013-05-02 11:08:00,
2013-05-02 06:09:00,57.7,55.4,30.02,SE,124,0.0,0.0,92,0.00,,CLR,0.00,VWS V14.01,2013-05-02 11:09:00,
2013-05-02 06:10:00,57.7,55.4,30.02,SE,124,0.0,0.0,92,0.00,,CLR,0.00,VWS V14.01,2013-05-02 11:10:00,
2013-05-02 06:13:00,57.7,55.4,30.02,SE,124,0.0,0.0,92,0.00,,CLR,0.00,VWS V14.01,2013-05-02 11:13:00,
2013-05-02 06:14:00,57.7,55.4,30.02,SE,124,0.0,0.0,92,0.00,,CLR,0.00,VWS V14.01,2013-05-02 11:14:00,
2013-05-02 06:15:00,57.7,55.4,30.03,SE,124,0.0,0.0,92,0.00,,CLR,0.00,VWS V14.01,2013-05-02 11:15:00,
2013-05-02 06:18:00,57.9,55.6,30.03,SE,124,0.0,0.0,92,0.00,,CLR,0.00,VWS V14.01,2013-05-02 11:18:00,
2013-05-02 06:19:00,57.9,55.6,30.03,SE,124,0.0,0.0,92,0.00,,CLR,0.00,VWS V14.01,2013-05-02 11:19:00,
2013-05-02 06:20:00,57.9,55.6,30.03,SE,124,0.0,0.0,92,0.00,,CLR,0.00,VWS V14.01,2013-05-02 11:20:00,
2013-05-02 06:23:00,57.9,55.6,30.03,SE,124,0.0,0.0,92,0.00,,CLR,0.00,VWS V14.01,2013-05-02 11:23:00,
2013-05-02 06:24:00,57.9,55.6,30.03,SE,124,0.0,0.0,92,0.00,,CLR,0.00,VWS V14.01,2013-05-02 11:24:00,
2013-05-02 06:25:00,57.9,55.6,30.03,SE,124,0.0,0.0,92,0.00,,CLR,0.00,VWS V14.01,2013-05-02 11:25:00,
2013-05-02 06:28:00,58.0,55.7,30.03,SE,124,0.0,0.0,92,0.00,,CLR,0.00,VWS V14.01,2013-05-02 11:28:00,
2013-05-02 06:29:00,58.0,55.7,30.03,SE,124,0.0,0.0,92,0.00,,CLR,0.00,VWS V14.01,2013-05-02 11:29:00,
2013-05-02 06:30:00,58.0,55.7,30.04,SE,124,0.0,0.0,92,0.00,,CLR,0.00,VWS V14.01,2013-05-02 11:30:00,
2013-05-02 06:33:00,58.2,55.9,30.04,SE,124,0.0,0.0,92,0.00,,CLR,0.00,VWS V14.01,2013-05-02 11:33:00,
2013-05-02 06:34:00,58.2,55.9,30.04,SE,124,0.0,0.0,92,0.00,,CLR,0.00,VWS V14.01,2013-05-02 11:34:00,
2013-05-02 06:35:00,58.2,55.9,30.04,SE,124,0.0,0.0,92,0.00,,CLR,0.00,VWS V14.01,2013-05-02 11:35:00,
2013-05-02 06:38:00,58.2,55.9,30.04,SE,124,0.0,0.0,92,0.00,,CLR,0.00,VWS V14.01,2013-05-02 11:38:00,
2013-05-02 06:39:00,58.2,55.9,30.04,SE,124,0.0,0.0,92,0.00,,CLR,0.00,VWS V14.01,2013-05-02 11:39:00,
2013-05-02 06:40:00,58.2,55.9,30.04,SE,124,0.0,0.0,92,0.00,,CLR,0.00,VWS V14.01,2013-05-02 11:40:00,
2013-05-02 06:41:00,58.2,55.9,30.04,SE,124,0.0,0.0,92,0.00,,CLR,0.00,VWS V14.01,2013-05-02 11:41:00,
2013-05-02 06:43:00,58.3,56.0,30.04,SE,124,0.0,0.0,92,0.00,,CLR,0.00,VWS V14.01,2013-05-02 11:43:00,
2013-05-02 06:44:00,58.3,56.0,30.04,SE,124,0.0,0.0,92,0.00,,CLR,0.00,VWS V14.01,2013-05-02 11:44:00,
2013-05-02 06:45:00,58.3,56.0,30.04,SE,124,0.0,0.0,92,0.00,,CLR,0.00,VWS V14.01,2013-05-02 11:45:00,
2013-05-02 06:46:00,58.3,56.0,30.04,SE,124,0.0,0.0,92,0.00,,SCT085,0.00,VWS V14.01,2013-05-02 11:46:00,
2013-05-02 06:48:00,58.5,56.2,30.04,SE,124,0.0,0.0,92,0.00,,SCT085,0.00,VWS V14.01,2013-05-02 11:48:00,
2013-05-02 06:49:00,58.5,56.2,30.04,SE,124,0.0,0.0,92,0.00,,SCT085,0.00,VWS V14.01,2013-05-02 11:49:00,
2013-05-02 06:50:00,58.5,56.2,30.04,SE,124,0.0,0.0,92,0.00,,SCT085,0.00,VWS V14.01,2013-05-02 11:50:00,
2013-05-02 06:51:00,58.5,56.2,30.04,SE,124,0.0,0.0,92,0.00,,SCT085,0.00,VWS V14.01,2013-05-02 11:51:00,
2013-05-02 06:54:00,58.6,56.3,30.04,SE,124,0.0,0.0,92,0.00,,SCT085,0.00,VWS V14.01,2013-05-02 11:54:00,
2013-05-02 06:55:00,58.6,56.3,30.04,SE,124,0.0,0.0,92,0.00,,SCT085,0.00,VWS V14.01,2013-05-02 11:55:00,
2013-05-02 06:56:00,58.6,56.3,30.04,SE,124,0.0,0.0,92,0.00,,SCT085,0.00,VWS V14.01,2013-05-02 11:56:00,
2013-05-02 06:59:00,58.6,56.3,30.04,SE,124,0.0,0.0,92,0.00,,SCT085,0.00,VWS V14.01,2013-05-02 11:59:00,
2013-05-02 07:00:00,58.6,56.3,30.04,SE,124,0.0,0.0,92,0.00,,SCT085,0.00,VWS V14.01,2013-05-02 12:00:00,
2013-05-02 07:01:00,58.6,56.3,30.04,SE,124,0.0,0.0,92,0.00,,SCT085,0.00,VWS V14.01,2013-05-02 12:01:00,
2013-05-02 07:04:00,58.8,56.5,30.04,SE,124,0.0,0.0,92,0.00,,SCT085,0.00,VWS V14.01,2013-05-02 12:04:00,
2013-05-02 07:05:00,58.8,56.5,30.04,SE,124,0.0,0.0,92,0.00,,SCT085,0.00,VWS V14.01,2013-05-02 12:05:00,
2013-05-02 07:06:00,58.8,56.5,30.04,SE,124,0.0,0.0,92,0.00,,SCT085,0.00,VWS V14.01,2013-05-02 12:06:00,
2013-05-02 07:09:00,58.9,56.6,30.04,SE,124,0.0,0.0,92,0.00,,SCT085,0.00,VWS V14.01,2013-05-02 12:09:00,
2013-05-02 07:10:00,58.9,56.6,30.04,SE,124,0.0,0.0,92,0.00,,SCT085,0.00,VWS V14.01,2013-05-02 12:10:00,
2013-05-02 07:11:00,58.9,56.6,30.04,SE,124,0.0,0.0,92,0.00,,SCT085,0.00,VWS V14.01,2013-05-02 12:11:00,
2013-05-02 07:14:00,59.1,56.8,30.04,SE,124,0.0,0.0,92,0.00,,SCT085,0.00,VWS V14.01,2013-05-02 12:14:00,
2013-05-02 07:15:00,59.1,56.8,30.05,SE,124,0.0,0.0,92,0.00,,SCT085,0.00,VWS V14.01,2013-05-02 12:15:00,
2013-05-02 07:16:00,59.2,56.9,30.05,SE,124,0.0,0.0,92,0.00,,SCT085,0.00,VWS V14.01,2013-05-02 12:16:00,
2013-05-02 07:17:00,59.2,56.9,30.05,SE,124,0.0,0.0,92,0.00,,SCT085,0.00,VWS V14.01,2013-05-02 12:17:00,
2013-05-02 07:19:00,59.5,57.2,30.05,SE,124,0.0,0.0,92,0.00,,SCT085,0.00,VWS V14.01,2013-05-02 12:19:00,
2013-05-02 07:20:00,59.5,57.2,30.05,SE,124,0.0,0.0,92,0.00,,SCT085,0.00,VWS V14.01,2013-05-02 12:20:00,
2013-05-02 07:21:00,59.7,57.4,30.05,SE,124,0.0,0.0,92,0.00,,SCT085,0.00,VWS V14.01,2013-05-02 12:21:00,
2013-05-02 07:22:00,59.7,57.4,30.05,SE,124,0.0,0.0,92,0.00,,SCT085,0.00,VWS V14.01,2013-05-02 12:22:00,
2013-05-02 07:24:00,60.0,57.7,30.05,SE,124,0.0,0.0,92,0.00,,SCT085,0.00,VWS V14.01,2013-05-02 12:24:00,
2013-05-02 07:25:00,60.0,57.7,30.05,SE,124,0.0,0.0,92,0.00,,SCT085,0.00,VWS V14.01,2013-05-02 12:25:00,
2013-05-02 07:26:00,60.1,57.8,30.05,SE,124,0.0,0.0,92,0.00,,SCT085,0.00,VWS V14.01,2013-05-02 12:26:00,
2013-05-02 07:27:00,60.3,58.0,30.05,SE,124,0.0,0.0,92,0.00,,SCT085,0.00,VWS V14.01,2013-05-02 12:27:00,
2013-05-02 07:30:00,60.6,58.3,30.05,SE,124,0.0,0.0,92,0.00,,SCT085,0.00,VWS V14.01,2013-05-02 12:30:00,
2013-05-02 07:32:00,60.9,58.6,30.05,SE,124,0.0,0.0,92,0.00,,SCT085,0.00,VWS V14.01,2013-05-02 12:32:00,
2013-05-02 07:35:00,61.5,59.2,30.05,SE,124,0.0,0.0,92,0.00,,SCT085,0.00,VWS V14.01,2013-05-02 12:35:00,
2013-05-02 07:37:00,61.7,59.4,30.05,SE,124,0.0,0.0,92,0.00,,SCT085,0.00,VWS V14.01,2013-05-02 12:37:00,
2013-05-02 07:40:00,62.2,59.5,30.05,SE,124,0.0,0.0,91,0.00,,SCT085,0.00,VWS V14.01,2013-05-02 12:40:00,
2013-05-02 07:41:00,62.3,59.6,30.05,SE,124,0.0,0.0,91,0.00,,SCT085,0.00,VWS V14.01,2013-05-02 12:41:00,
2013-05-02 07:42:00,62.5,59.8,30.05,SE,131,0.0,1.0,91,0.00,,SCT085,0.00,VWS V14.01,2013-05-02 12:42:00,
2013-05-02 07:43:00,62.6,59.9,30.05,SE,131,0.0,1.0,91,0.00,,SCT085,0.00,VWS V14.01,2013-05-02 12:43:00,
2013-05-02 07:45:00,63.0,60.0,30.05,SE,132,0.0,1.0,90,0.00,,SCT085,0.00,VWS V14.01,2013-05-02 12:45:00,
2013-05-02 07:46:00,63.1,59.5,30.05,SE,132,0.0,1.0,88,0.00,,SCT085,0.00,VWS V14.01,2013-05-02 12:46:00,
2013-05-02 07:47:00,63.4,59.8,30.05,SSE,160,0.0,1.0,88,0.00,,SCT085,0.00,VWS V14.01,2013-05-02 12:47:00,
2013-05-02 07:48:00,63.6,59.7,30.05,SSE,160,0.0,1.0,87,0.00,,SCT085,0.00,VWS V14.01,2013-05-02 12:48:00,
2013-05-02 07:50:00,64.2,59.3,30.05,South,186,0.0,5.0,84,0.00,,SCT085,0.00,VWS V14.01,2013-05-02 12:50:00,
2013-05-02 07:51:00,64.4,59.1,30.05,South,186,0.0,5.0,83,0.00,,SCT085,0.00,VWS V14.01,2013-05-02 12:51:00,
2013-05-02 07:52:00,64.7,59.1,30.05,South,186,0.0,5.0,82,0.00,,SCT085,0.00,VWS V14.01,2013-05-02 12:52:00,
2013-05-02 07:53:00,64.9,58.9,30.05,South,186,0.0,5.0,81,0.00,,SCT085,0.00,VWS V14.01,2013-05-02 12:53:00,
2013-05-02 07:55:00,65.2,58.9,30.05,South,186,1.0,5.0,80,0.00,,SCT085,0.00,VWS V14.01,2013-05-02 12:55:00,
2013-05-02 07:56:00,65.4,58.7,30.05,South,186,0.0,5.0,79,0.00,,SCT085,0.00,VWS V14.01,2013-05-02 12:56:00,
2013-05-02 07:57:00,65.5,58.5,30.05,South,186,0.0,5.0,78,0.00,,SCT085,0.00,VWS V14.01,2013-05-02 12:57:00,
2013-05-02 07:58:00,65.5,58.5,30.05,South,186,0.0,5.0,78,0.00,,SCT085,0.00,VWS V14.01,2013-05-02 12:58:00,
2013-05-02 08:00:00,65.9,58.9,30.05,South,186,0.0,5.0,78,0.00,,SCT085,0.00,VWS V14.01,2013-05-02 13:00:00,
2013-05-02 08:01:00,66.0,59.0,30.05,South,186,0.0,0.0,78,0.00,,SCT085,0.00,VWS V14.01,2013-05-02 13:01:00,
2013-05-02 08:03:00,66.2,58.8,30.05,South,188,0.0,0.0,77,0.00,,SCT085,0.00,VWS V14.01,2013-05-02 13:03:00,
2013-05-02 08:05:00,66.5,58.7,30.05,South,184,0.0,0.0,76,0.00,,SCT085,0.00,VWS V14.01,2013-05-02 13:05:00,
2013-05-02 08:06:00,66.7,58.5,30.05,South,182,0.0,0.0,75,0.00,,SCT085,0.00,VWS V14.01,2013-05-02 13:06:00,
2013-05-02 08:08:00,66.8,58.6,30.05,South,180,0.0,0.0,75,0.00,,SCT085,0.00,VWS V14.01,2013-05-02 13:08:00,
2013-05-02 08:10:00,67.2,58.3,30.05,SSE,151,0.0,0.0,73,0.00,,SCT085,0.00,VWS V14.01,2013-05-02 13:10:00,
2013-05-02 08:11:00,67.3,58.4,30.05,SSE,151,0.0,0.0,73,0.00,,SCT085,0.00,VWS V14.01,2013-05-02 13:11:00,
2013-05-02 08:13:00,67.5,58.5,30.05,SSE,151,0.0,0.0,73,0.00,,SCT085,0.00,VWS V14.01,2013-05-02 13:13:00,
2013-05-02 08:16:00,68.0,59.0,30.05,SSE,151,0.0,1.0,73,0.00,,SCT085,0.00,VWS V14.01,2013-05-02 13:16:00,
2013-05-02 08:18:00,68.3,58.9,30.05,SSE,151,0.0,1.0,72,0.00,,SCT085,0.00,VWS V14.01,2013-05-02 13:18:00,
2013-05-02 08:21:00,68.8,59.4,30.05,SSE,151,0.0,1.0,72,0.00,,SCT085,0.00,VWS V14.01,2013-05-02 13:21:00,
2013-05-02 08:22:00,68.8,59.4,30.05,SSE,152,0.0,1.0,72,0.00,,SCT085,0.00,VWS V14.01,2013-05-02 13:22:00,
2013-05-02 08:23:00,69.0,59.2,30.05,SSE,152,0.0,1.0,71,0.00,,SCT085,0.00,VWS V14.01,2013-05-02 13:23:00,
2013-05-02 08:24:00,69.0,59.2,30.05,SSE,152,0.0,1.0,71,0.00,,SCT085,0.00,VWS V14.01,2013-05-02 13:24:00,
2013-05-02 08:26:00,69.2,59.8,30.05,South,180,0.0,1.0,72,0.00,,SCT085,0.00,VWS V14.01,2013-05-02 13:26:00,
2013-05-02 08:27:00,69.0,58.8,30.05,South,180,0.0,1.0,70,0.00,,SCT085,0.00,VWS V14.01,2013-05-02 13:27:00,
2013-05-02 08:28:00,69.0,58.8,30.05,South,180,0.0,1.0,70,0.00,,SCT085,0.00,VWS V14.01,2013-05-02 13:28:00,
2013-05-02 08:29:00,69.0,58.8,30.05,South,180,0.0,1.0,70,0.00,,SCT085,0.00,VWS V14.01,2013-05-02 13:29:00,
2013-05-02 08:30:00,69.0,58.8,30.05,South,180,0.0,1.0,70,0.00,,,0.00,VWS V14.01,2013-05-02 13:30:00,
2013-05-02 08:31:00,69.0,58.8,30.05,South,180,0.0,0.0,70,0.00,,SCT100,0.00,VWS V14.01,2013-05-02 13:31:00,
2013-05-02 08:32:00,69.0,58.8,30.05,South,180,0.0,0.0,70,0.00,,SCT100,0.00,VWS V14.01,2013-05-02 13:32:00,
2013-05-02 08:33:00,69.0,58.8,30.05,South,180,0.0,0.0,70,0.00,,SCT100,0.00,VWS V14.01,2013-05-02 13:33:00,
2013-05-02 08:34:00,69.0,58.8,30.05,South,188,0.0,0.0,70,0.00,,SCT100,0.00,VWS V14.01,2013-05-02 13:34:00,
2013-05-02 08:37:00,69.2,59.0,30.05,South,188,0.0,0.0,70,0.00,,SCT100,0.00,VWS V14.01,2013-05-02 13:37:00,
2013-05-02 08:38:00,69.0,58.8,30.05,South,188,0.0,0.0,70,0.00,,SCT100,0.00,VWS V14.01,2013-05-02 13:38:00,
2013-05-02 08:39:00,69.0,58.4,30.05,South,188,0.0,0.0,69,0.00,,SCT100,0.00,VWS V14.01,2013-05-02 13:39:00,
2013-05-02 08:42:00,69.0,58.4,30.05,South,188,0.0,1.0,69,0.00,,SCT100,0.00,VWS V14.01,2013-05-02 13:42:00,
2013-05-02 08:43:00,69.0,58.4,30.05,South,188,0.0,1.0,69,0.00,,SCT100,0.00,VWS V14.01,2013-05-02 13:43:00,
2013-05-02 08:44:00,68.8,58.2,30.05,South,188,0.0,1.0,69,0.00,,SCT100,0.00,VWS V14.01,2013-05-02 13:44:00,
2013-05-02 08:47:00,69.0,58.8,30.05,South,188,0.0,1.0,70,0.00,,CLR,0.00,VWS V14.01,2013-05-02 13:47:00,
2013-05-02 08:48:00,69.0,58.8,30.05,South,188,0.0,1.0,70,0.00,,CLR,0.00,VWS V14.01,2013-05-02 13:48:00,
2013-05-02 08:49:00,69.0,59.2,30.05,South,188,0.0,1.0,71,0.00,,CLR,0.00,VWS V14.01,2013-05-02 13:49:00,
2013-05-02 08:52:00,69.2,58.6,30.05,South,176,0.0,1.0,69,0.00,,CLR,0.00,VWS V14.01,2013-05-02 13:52:00,
2013-05-02 08:53:00,69.3,58.7,30.05,South,176,0.0,1.0,69,0.00,,CLR,0.00,VWS V14.01,2013-05-02 13:53:00,
2013-05-02 08:54:00,69.5,59.3,30.05,South,176,0.0,1.0,70,0.00,,CLR,0.00,VWS V14.01,2013-05-02 13:54:00,
2013-05-02 08:57:00,70.0,59.4,30.05,South,178,0.0,1.0,69,0.00,,CLR,0.00,VWS V14.01,2013-05-02 13:57:00,
2013-05-02 08:58:00,70.2,59.6,30.05,WSW,246,0.0,1.0,69,0.00,,CLR,0.00,VWS V14.01,2013-05-02 13:58:00,
2013-05-02 08:59:00,70.3,59.7,30.05,WSW,246,0.0,1.0,69,0.00,,CLR,0.00,VWS V14.01,2013-05-02 13:59:00,
2013-05-02 09:00:00,70.3,59.2,30.05,WSW,246,0.0,1.0,68,0.00,,CLR,0.00,VWS V14.01,2013-05-02 14:00:00,
2013-05-02 09:02:00,70.7,60.0,30.05,NNW,327,0.0,0.0,69,0.00,,CLR,0.00,VWS V14.01,2013-05-02 14:02:00,
2013-05-02 09:03:00,70.7,60.0,30.05,NNW,327,0.0,0.0,69,0.00,,CLR,0.00,VWS V14.01,2013-05-02 14:03:00,
2013-05-02 09:04:00,70.7,59.6,30.05,SW,221,0.0,1.0,68,0.00,,CLR,0.00,VWS V14.01,2013-05-02 14:04:00,
2013-05-02 09:05:00,70.7,59.6,30.05,SW,221,0.0,1.0,68,0.00,,CLR,0.00,VWS V14.01,2013-05-02 14:05:00,
2013-05-02 09:07:00,70.8,59.7,30.05,SW,222,0.0,1.0,68,0.00,,CLR,0.00,VWS V14.01,2013-05-02 14:07:00,
2013-05-02 09:08:00,70.8,59.7,30.05,SW,222,0.0,1.0,68,0.00,,CLR,0.00,VWS V14.01,2013-05-02 14:08:00,
2013-05-02 09:10:00,71.0,59.9,30.05,WSW,250,0.0,1.0,68,0.00,,CLR,0.00,VWS V14.01,2013-05-02 14:10:00,
2013-05-02 09:12:00,71.0,59.5,30.05,NW,311,0.0,1.0,67,0.00,,CLR,0.00,VWS V14.01,2013-05-02 14:12:00,
2013-05-02 09:13:00,71.0,59.5,30.05,NW,325,0.0,1.0,67,0.00,,CLR,0.00,VWS V14.01,2013-05-02 14:13:00,
2013-05-02 09:15:00,71.0,59.5,30.06,NW,324,0.0,6.0,67,0.00,,CLR,0.00,VWS V14.01,2013-05-02 14:15:00,
2013-05-02 09:18:00,70.7,59.6,30.06,NW,304,0.0,6.0,68,0.00,,CLR,0.00,VWS V14.01,2013-05-02 14:18:00,
2013-05-02 09:19:00,70.7,60.0,30.06,NW,314,0.0,6.0,69,0.00,,CLR,0.00,VWS V14.01,2013-05-02 14:19:00,
2013-05-02 09:20:00,70.5,59.8,30.06,West,277,0.0,6.0,69,0.00,,CLR,0.00,VWS V14.01,2013-05-02 14:20:00,
2013-05-02 09:23:00,70.2,59.6,30.06,NW,321,0.0,7.0,69,0.00,,CLR,0.00,VWS V14.01,2013-05-02 14:23:00,
2013-05-02 09:24:00,70.2,59.6,30.06,North,10,0.0,7.0,69,0.00,,CLR,0.00,VWS V14.01,2013-05-02 14:24:00,
2013-05-02 09:25:00,70.0,59.8,30.06,North,355,2.0,7.0,70,0.00,,CLR,0.00,VWS V14.01,2013-05-02 14:25:00,
2013-05-02 09:28:00,69.8,60.0,30.06,North,355,0.0,7.0,71,0.00,,CLR,0.00,VWS V14.01,2013-05-02 14:28:00,
2013-05-02 09:29:00,69.7,59.9,30.06,North,355,0.0,7.0,71,0.00,,CLR,0.00,VWS V14.01,2013-05-02 14:29:00,
2013-05-02 09:30:00,69.5,59.7,30.06,North,355,0.0,7.0,71,0.00,,CLR,0.00,VWS V14.01,2013-05-02 14:30:00,
2013-05-02 09:33:00,69.5,60.1,30.06,North,355,0.0,0.0,72,0.00,,CLR,0.00,VWS V14.01,2013-05-02 14:33:00,
2013-05-02 09:34:00,69.3,59.9,30.06,North,355,0.0,0.0,72,0.00,,CLR,0.00,VWS V14.01,2013-05-02 14:34:00,
2013-05-02 09:35:00,69.3,59.9,30.06,NW,321,0.0,3.0,72,0.00,,CLR,0.00,VWS V14.01,2013-05-02 14:35:00,
2013-05-02 09:38:00,69.2,60.2,30.06,NW,325,0.0,3.0,73,0.00,,CLR,0.00,VWS V14.01,2013-05-02 14:38:00,
2013-05-02 09:39:00,69.2,60.2,30.06,NW,325,0.0,3.0,73,0.00,,CLR,0.00,VWS V14.01,2013-05-02 14:39:00,
2013-05-02 09:41:00,69.2,60.2,30.06,NW,325,0.0,3.0,73,0.00,,CLR,0.00,VWS V14.01,2013-05-02 14:41:00,
2013-05-02 09:44:00,69.2,60.2,30.06,NW,325,0.0,3.0,73,0.00,,CLR,0.00,VWS V14.01,2013-05-02 14:44:00,
2013-05-02 09:46:00,69.2,60.2,30.07,NW,325,0.0,3.0,73,0.00,,CLR,0.00,VWS V14.01,2013-05-02 14:46:00,
2013-05-02 09:49:00,69.2,59.8,30.07,NW,325,0.0,3.0,72,0.00,,CLR,0.00,VWS V14.01,2013-05-02 14:49:00,
2013-05-02 09:51:00,69.0,60.0,30.07,NW,325,0.0,3.0,73,0.00,,CLR,0.00,VWS V14.01,2013-05-02 14:51:00,
2013-05-02 09:52:00,69.0,60.0,30.07,NW,325,0.0,3.0,73,0.00,,CLR,0.00,VWS V14.01,2013-05-02 14:52:00,
2013-05-02 09:54:00,68.8,59.8,30.07,NW,325,0.0,3.0,73,0.00,,CLR,0.00,VWS V14.01,2013-05-02 14:54:00,
2013-05-02 09:56:00,68.8,59.8,30.07,NW,325,0.0,3.0,73,0.00,,CLR,0.00,VWS V14.01,2013-05-02 14:56:00,
2013-05-02 09:57:00,68.8,59.8,30.07,NW,325,0.0,3.0,73,0.00,,CLR,0.00,VWS V14.01,2013-05-02 14:57:00,
2013-05-02 09:59:00,68.8,59.8,30.07,NW,325,0.0,3.0,73,0.00,,CLR,0.00,VWS V14.01,2013-05-02 14:59:00,
2013-05-02 10:00:00,68.8,59.8,30.08,NW,325,0.0,3.0,73,0.00,,CLR,0.00,VWS V14.01,2013-05-02 15:00:00,
2013-05-02 10:01:00,68.8,59.4,30.08,NW,325,0.0,0.0,72,0.00,,CLR,0.00,VWS V14.01,2013-05-02 15:01:00,
2013-05-02 10:02:00,68.8,59.8,30.08,NW,325,0.0,0.0,73,0.00,,CLR,0.00,VWS V14.01,2013-05-02 15:02:00,
2013-05-02 10:04:00,68.8,59.8,30.08,NW,313,0.0,1.0,73,0.00,,CLR,0.00,VWS V14.01,2013-05-02 15:04:00,
2013-05-02 10:05:00,68.8,59.8,30.08,NW,313,1.0,1.0,73,0.00,,CLR,0.00,VWS V14.01,2013-05-02 15:05:00,
2013-05-02 10:06:00,68.8,59.8,30.08,NW,316,0.0,1.0,73,0.00,,CLR,0.00,VWS V14.01,2013-05-02 15:06:00,
2013-05-02 10:07:00,68.7,59.7,30.08,NW,321,0.0,1.0,73,0.00,,CLR,0.00,VWS V14.01,2013-05-02 15:07:00,
2013-05-02 10:09:00,68.7,59.7,30.08,NW,310,3.0,5.0,73,0.00,,CLR,0.00,VWS V14.01,2013-05-02 15:09:00,
2013-05-02 10:10:00,68.7,59.7,30.08,NW,311,4.0,6.0,73,0.00,,CLR,0.00,VWS V14.01,2013-05-02 15:10:00,
2013-05-02 10:11:00,68.7,59.7,30.08,NW,319,0.0,6.0,73,0.00,,CLR,0.00,VWS V14.01,2013-05-02 15:11:00,
2013-05-02 10:12:00,68.7,59.7,30.08,NW,319,0.0,6.0,73,0.00,,CLR,0.00,VWS V14.01,2013-05-02 15:12:00,
2013-05-02 10:14:00,68.7,59.7,30.08,NNW,327,0.0,6.0,73,0.00,,CLR,0.00,VWS V14.01,2013-05-02 15:14:00,
2013-05-02 10:15:00,68.7,59.7,30.07,NW,314,0.0,6.0,73,0.00,,CLR,0.00,VWS V14.01,2013-05-02 15:15:00,
2013-05-02 10:16:00,68.7,59.7,30.07,WNW,300,0.0,6.0,73,0.00,,CLR,0.00,VWS V14.01,2013-05-02 15:16:00,
2013-05-02 10:17:00,68.7,59.7,30.07,NW,316,0.0,6.0,73,0.00,,CLR,0.00,VWS V14.01,2013-05-02 15:17:00,
2013-05-02 10:19:00,68.7,59.7,30.07,NNE,13,0.0,6.0,73,0.00,,CLR,0.00,VWS V14.01,2013-05-02 15:19:00,
2013-05-02 10:20:00,68.7,59.7,30.07,NNE,13,0.0,6.0,73,0.00,,CLR,0.00,VWS V14.01,2013-05-02 15:20:00,
2013-05-02 10:22:00,68.7,59.7,30.07,NW,323,2.0,6.0,73,0.00,,CLR,0.00,VWS V14.01,2013-05-02 15:22:00,
2013-05-02 10:23:00,68.7,59.7,30.07,NW,309,0.0,6.0,73,0.00,,CLR,0.00,VWS V14.01,2013-05-02 15:23:00,
2013-05-02 10:25:00,68.8,59.8,30.07,NW,309,0.0,6.0,73,0.00,,CLR,0.00,VWS V14.01,2013-05-02 15:25:00,
2013-05-02 10:27:00,69.0,60.0,30.07,North,349,3.0,6.0,73,0.00,,CLR,0.00,VWS V14.01,2013-05-02 15:27:00,
2013-05-02 10:28:00,69.2,60.2,30.07,North,349,0.0,6.0,73,0.00,,CLR,0.00,VWS V14.01,2013-05-02 15:28:00,
2013-05-02 10:30:00,69.2,59.8,30.06,North,9,1.0,6.0,72,0.00,,CLR,0.00,VWS V14.01,2013-05-02 15:30:00,
2013-05-02 10:32:00,69.2,59.8,30.06,North,9,0.0,0.0,72,0.00,,CLR,0.00,VWS V14.01,2013-05-02 15:32:00,
2013-05-02 10:33:00,69.2,59.8,30.06,NNW,327,1.0,1.0,72,0.00,,CLR,0.00,VWS V14.01,2013-05-02 15:33:00,
2013-05-02 10:35:00,69.3,59.5,30.06,NW,324,7.0,9.0,71,0.00,,CLR,0.00,VWS V14.01,2013-05-02 15:35:00,
2013-05-02 10:38:00,69.5,59.7,30.06,NNW,343,4.0,10.0,71,0.00,,CLR,0.00,VWS V14.01,2013-05-02 15:38:00,
2013-05-02 10:40:00,69.5,60.5,30.06,WNW,300,6.0,11.0,73,0.00,,CLR,0.00,VWS V14.01,2013-05-02 15:40:00,
2013-05-02 10:43:00,69.2,60.6,30.06,NW,322,0.0,11.0,74,0.00,,CLR,0.00,VWS V14.01,2013-05-02 15:43:00,
2013-05-02 10:45:00,69.2,61.0,30.06,NW,314,0.0,11.0,75,0.00,,CLR,0.00,VWS V14.01,2013-05-02 15:45:00,
2013-05-02 10:48:00,69.2,60.6,30.06,North,355,0.0,11.0,74,0.00,,SCT015,0.00,VWS V14.01,2013-05-02 15:48:00,
2013-05-02 10:50:00,69.3,60.3,30.06,WNW,288,3.0,11.0,73,0.00,,SCT015,0.00,VWS V14.01,2013-05-02 15:50:00,
2013-05-02 10:53:00,69.3,60.3,30.06,NNW,339,0.0,11.0,73,0.00,,SCT015,0.00,VWS V14.01,2013-05-02 15:53:00,
2013-05-02 10:55:00,69.3,60.3,30.06,NNW,328,0.0,11.0,73,0.00,,SCT015,0.00,VWS V14.01,2013-05-02 15:55:00,
2013-05-02 10:56:00,69.3,60.3,30.06,NNW,344,0.0,11.0,73,0.00,,SCT015,0.00,VWS V14.01,2013-05-02 15:56:00,
2013-05-02 10:58:00,69.2,60.2,30.06,North,9,0.0,11.0,73,0.00,,SCT015,0.00,VWS V14.01,2013-05-02 15:58:00,
2013-05-02 10:59:00,69.2,60.2,30.06,WNW,303,4.0,11.0,73,0.00,,SCT015,0.00,VWS V14.01,2013-05-02 15:59:00,
2013-05-02 11:00:00,69.2,60.2,30.06,NNW,336,0.0,11.0,73,0.00,,SCT015,0.00,VWS V14.01,2013-05-02 16:00:00,
2013-05-02 11:01:00,69.2,60.2,30.06,NW,315,0.0,1.0,73,0.00,,SCT015,0.00,VWS V14.01,2013-05-02 16:01:00,
2013-05-02 11:03:00,69.3,60.3,30.06,NW,315,3.0,9.0,73,0.00,,SCT015,0.00,VWS V14.01,2013-05-02 16:03:00,
2013-05-02 11:04:00,69.3,60.3,30.06,NW,306,0.0,9.0,73,0.00,,SCT015,0.00,VWS V14.01,2013-05-02 16:04:00,
2013-05-02 11:05:00,69.3,60.3,30.06,NW,317,0.0,9.0,73,0.00,,SCT015,0.00,VWS V14.01,2013-05-02 16:05:00,
2013-05-02 11:06:00,69.3,60.3,30.06,NW,317,0.0,9.0,73,0.00,,SCT015,0.00,VWS V14.01,2013-05-02 16:06:00,
2013-05-02 11:09:00,69.7,60.7,30.06,NNW,331,5.0,9.0,73,0.00,,SCT015,0.00,VWS V14.01,2013-05-02 16:09:00,
2013-05-02 11:11:00,70.0,60.6,30.06,NW,324,0.0,9.0,72,0.00,,SCT015,0.00,VWS V14.01,2013-05-02 16:11:00,
2013-05-02 11:14:00,70.7,60.8,30.06,NNW,335,0.0,9.0,71,0.00,,SCT015,0.00,VWS V14.01,2013-05-02 16:14:00,
2013-05-02 11:16:00,70.8,60.1,30.06,WNW,299,5.0,9.0,69,0.00,,SCT015,0.00,VWS V14.01,2013-05-02 16:16:00,
2013-05-02 11:17:00,70.8,60.1,30.06,NW,307,4.0,9.0,69,0.00,,SCT015,0.00,VWS V14.01,2013-05-02 16:17:00,
2013-05-02 11:19:00,70.8,60.1,30.06,NNE,13,5.0,10.0,69,0.00,,SCT015,0.00,VWS V14.01,2013-05-02 16:19:00,
2013-05-02 11:21:00,70.8,60.1,30.06,NW,310,0.0,10.0,69,0.00,,SCT015,0.00,VWS V14.01,2013-05-02 16:21:00,
2013-05-02 11:22:00,71.0,60.7,30.06,North,360,3.0,10.0,70,0.00,,SCT015,0.00,VWS V14.01,2013-05-02 16:22:00,
2013-05-02 11:24:00,71.0,59.9,30.06,WNW,300,4.0,10.0,68,0.00,,SCT015,0.00,VWS V14.01,2013-05-02 16:24:00,
2013-05-02 11:26:00,71.0,60.3,30.06,North,9,3.0,10.0,69,0.00,,SCT015,0.00,VWS V14.01,2013-05-02 16:26:00,
2013-05-02 11:27:00,71.0,59.9,30.06,NNW,333,0.0,10.0,68,0.00,,SCT015,0.00,VWS V14.01,2013-05-02 16:27:00,
2013-05-02 11:29:00,71.2,60.1,30.06,NNE,24,0.0,10.0,68,0.00,,SCT015,0.00,VWS V14.01,2013-05-02 16:29:00,
2013-05-02 11:30:00,71.2,59.7,30.05,North,5,7.0,10.0,67,0.00,,,0.00,VWS V14.01,2013-05-02 16:30:00,
2013-05-02 11:31:00,71.0,59.5,30.05,NNE,24,2.0,5.0,67,0.00,,SCT015,0.00,VWS V14.01,2013-05-02 16:31:00,
2013-05-02 11:32:00,71.0,60.3,30.05,NNE,28,3.0,5.0,69,0.00,,SCT015,0.00,VWS V14.01,2013-05-02 16:32:00,
2013-05-02 11:33:00,71.0,60.3,30.05,NNE,26,6.0,6.0,69,0.00,,SCT015,0.00,VWS V14.01,2013-05-02 16:33:00,
2013-05-02 11:34:00,71.0,60.3,30.05,NNW,345,4.0,7.0,69,0.00,,SCT015,0.00,VWS V14.01,2013-05-02 16:34:00,
2013-05-02 11:35:00,70.8,60.1,30.05,NNE,18,0.0,7.0,69,0.00,,SCT015,0.00,VWS V14.01,2013-05-02 16:35:00,
2013-05-02 11:36:00,71.0,59.9,30.05,NNW,343,0.0,7.0,68,0.00,,SCT015,0.00,VWS V14.01,2013-05-02 16:36:00,
2013-05-02 11:38:00,71.2,60.5,30.05,NNE,13,4.0,7.0,69,0.00,,SCT015,0.00,VWS V14.01,2013-05-02 16:38:00,
2013-05-02 11:39:00,71.0,59.5,30.05,NE,44,6.0,8.0,67,0.00,,SCT015,0.00,VWS V14.01,2013-05-02 16:39:00,
2013-05-02 11:40:00,71.0,59.5,30.05,NNE,14,1.0,8.0,67,0.00,,SCT015,0.00,VWS V14.01,2013-05-02 16:40:00,
2013-05-02 11:41:00,71.0,59.9,30.05,North,9,3.0,8.0,68,0.00,,SCT015,0.00,VWS V14.01,2013-05-02 16:41:00,
2013-05-02 11:43:00,71.0,60.3,30.05,NNE,13,0.0,8.0,69,0.00,,SCT015,0.00,VWS V14.01,2013-05-02 16:43:00,
2013-05-02 11:44:00,71.0,60.3,30.05,NW,311,0.0,8.0,69,0.00,,SCT015,0.00,VWS V14.01,2013-05-02 16:44:00,
2013-05-02 11:45:00,71.0,60.3,30.05,NW,314,0.0,8.0,69,0.00,,SCT015,0.00,VWS V14.01,2013-05-02 16:45:00,
2013-05-02 11:47:00,71.4,59.9,30.05,North,355,4.0,8.0,67,0.00,,SCT015,0.00,VWS V14.01,2013-05-02 16:47:00,
2013-05-02 11:48:00,71.4,59.9,30.05,NW,318,0.0,8.0,67,0.00,,SCT015,0.00,VWS V14.01,2013-05-02 16:48:00,
2013-05-02 11:49:00,71.5,60.4,30.05,NW,315,0.0,8.0,68,0.00,,SCT015,0.00,VWS V14.01,2013-05-02 16:49:00,
2013-05-02 11:50:00,71.7,60.2,30.05,North,349,0.0,8.0,67,0.00,,SCT015,0.00,VWS V14.01,2013-05-02 16:50:00,
2013-05-02 11:52:00,72.0,60.0,30.05,NW,317,3.0,8.0,66,0.00,,SCT015,0.00,VWS V14.01,2013-05-02 16:52:00,
2013-05-02 11:53:00,72.0,59.6,30.05,NW,309,0.0,8.0,65,0.00,,SCT015,0.00,VWS V14.01,2013-05-02 16:53:00,
2013-05-02 11:54:00,72.2,60.2,30.05,WNW,293,4.0,8.0,66,0.00,,SCT015,0.00,VWS V14.01,2013-05-02 16:54:00,
2013-05-02 11:55:00,72.2,59.8,30.05,WNW,298,1.0,8.0,65,0.00,,SCT015,0.00,VWS V14.01,2013-05-02 16:55:00,
2013-05-02 11:57:00,72.2,59.8,30.05,NW,305,0.0,8.0,65,0.00,,SCT015,0.00,VWS V14.01,2013-05-02 16:57:00,
2013-05-02 11:58:00,72.2,59.8,30.05,NW,311,5.0,8.0,65,0.00,,SCT015,0.00,VWS V14.01,2013-05-02 16:58:00,
2013-05-02 11:59:00,72.4,60.0,30.05,NW,319,3.0,8.0,65,0.00,,SCT015,0.00,VWS V14.01,2013-05-02 16:59:00,
2013-05-02 12:00:00,72.4,60.0,30.05,NNW,332,6.0,8.0,65,0.00,,SCT015,0.00,VWS V14.01,2013-05-02 17:00:00,
2013-05-02 12:02:00,72.4,60.0,30.05,North,355,1.0,7.0,65,0.00,,CLR,0.00,VWS V14.01,2013-05-02 17:02:00,
2013-05-02 12:03:00,72.4,59.5,30.05,NNW,345,0.0,7.0,64,0.00,,CLR,0.00,VWS V14.01,2013-05-02 17:03:00,
2013-05-02 12:04:00,72.4,59.5,30.05,NNW,330,0.0,7.0,64,0.00,,CLR,0.00,VWS V14.01,2013-05-02 17:04:00,
2013-05-02 12:05:00,72.6,59.7,30.05,North,355,7.0,7.0,64,0.00,,CLR,0.00,VWS V14.01,2013-05-02 17:05:00,
2013-05-02 12:07:00,72.4,59.5,30.05,NNE,28,0.0,10.0,64,0.00,,CLR,0.00,VWS V14.01,2013-05-02 17:07:00,
2013-05-02 12:09:00,72.4,60.0,30.05,North,9,4.0,10.0,65,0.00,,CLR,0.00,VWS V14.01,2013-05-02 17:09:00,
2013-05-02 12:11:00,72.2,59.4,30.05,WNW,293,0.0,10.0,64,0.00,,CLR,0.00,VWS V14.01,2013-05-02 17:11:00,
2013-05-02 12:12:00,72.0,59.2,30.05,NNW,327,5.0,10.0,64,0.00,,CLR,0.00,VWS V14.01,2013-05-02 17:12:00,
2013-05-02 12:14:00,71.9,59.1,30.05,North,360,2.0,10.0,64,0.00,,CLR,0.00,VWS V14.01,2013-05-02 17:14:00,
2013-05-02 12:16:00,72.0,59.6,30.05,North,11,3.0,10.0,65,0.00,,CLR,0.00,VWS V14.01,2013-05-02 17:16:00,
2013-05-02 12:17:00,72.0,59.2,30.05,WNW,287,0.0,10.0,64,0.00,,CLR,0.00,VWS V14.01,2013-05-02 17:17:00,
2013-05-02 12:19:00,72.2,59.8,30.05,NW,305,0.0,10.0,65,0.00,,CLR,0.00,VWS V14.01,2013-05-02 17:19:00,
2013-05-02 12:21:00,72.4,59.5,30.05,WNW,303,0.0,10.0,64,0.00,,CLR,0.00,VWS V14.01,2013-05-02 17:21:00,
2013-05-02 12:22:00,72.7,59.8,30.05,WNW,288,0.0,10.0,64,0.00,,CLR,0.00,VWS V14.01,2013-05-02 17:22:00,
2013-05-02 12:24:00,72.9,60.0,30.05,WNW,283,0.0,10.0,64,0.00,,CLR,0.00,VWS V14.01,2013-05-02 17:24:00,
2013-05-02 12:26:00,73.6,59.8,30.05,NW,309,6.0,10.0,62,0.00,,CLR,0.00,VWS V14.01,2013-05-02 17:26:00,
2013-05-02 12:28:00,73.6,59.3,30.05,North,5,0.0,10.0,61,0.00,,CLR,0.00,VWS V14.01,2013-05-02 17:28:00,
2013-05-02 12:29:00,73.6,60.2,30.05,NNE,14,9.0,10.0,63,0.00,,CLR,0.00,VWS V14.01,2013-05-02 17:29:00,
2013-05-02 12:30:00,73.2,59.4,30.04,WNW,298,0.0,10.0,62,0.00,,,0.00,VWS V14.01,2013-05-02 17:30:00,
2013-05-02 12:31:00,73.2,59.9,30.04,WNW,296,0.0,0.0,63,0.00,,CLR,0.00,VWS V14.01,2013-05-02 17:31:00,
2013-05-02 12:33:00,73.1,59.8,30.04,North,350,5.0,8.0,63,0.00,,CLR,0.00,VWS V14.01,2013-05-02 17:33:00,
2013-05-02 12:34:00,72.9,59.6,30.04,NNW,341,0.0,8.0,63,0.00,,CLR,0.00,VWS V14.01,2013-05-02 17:34:00,
2013-05-02 12:35:00,72.9,59.6,30.04,North,5,0.0,8.0,63,0.00,,CLR,0.00,VWS V14.01,2013-05-02 17:35:00,
2013-05-02 12:36:00,72.9,60.5,30.04,NNW,344,5.0,8.0,65,0.00,,CLR,0.00,VWS V14.01,2013-05-02 17:36:00,
2013-05-02 12:38:00,72.7,59.4,30.04,NNW,333,0.0,8.0,63,0.00,,CLR,0.00,VWS V14.01,2013-05-02 17:38:00,
2013-05-02 12:39:00,72.7,59.4,30.04,NNE,28,4.0,8.0,63,0.00,,CLR,0.00,VWS V14.01,2013-05-02 17:39:00,
2013-05-02 12:40:00,72.7,59.4,30.04,NNE,17,0.0,8.0,63,0.00,,CLR,0.00,VWS V14.01,2013-05-02 17:40:00,
2013-05-02 12:41:00,72.6,59.7,30.04,North,355,0.0,8.0,64,0.00,,CLR,0.00,VWS V14.01,2013-05-02 17:41:00,
2013-05-02 12:43:00,72.6,60.2,30.04,NNW,336,0.0,8.0,65,0.00,,CLR,0.00,VWS V14.01,2013-05-02 17:43:00,
2013-05-02 12:44:00,72.6,59.7,30.04,NW,325,0.0,8.0,64,0.00,,CLR,0.00,VWS V14.01,2013-05-02 17:44:00,
2013-05-02 12:46:00,72.6,59.7,30.03,NNW,340,0.0,8.0,64,0.00,,CLR,0.00,VWS V14.01,2013-05-02 17:46:00,
2013-05-02 12:48:00,72.6,59.7,30.03,NNW,344,0.0,8.0,64,0.00,,CLR,0.00,VWS V14.01,2013-05-02 17:48:00,
2013-05-02 12:49:00,72.6,60.2,30.03,NNE,29,0.0,8.0,65,0.00,,CLR,0.00,VWS V14.01,2013-05-02 17:49:00,
2013-05-02 12:51:00,72.6,59.7,30.03,NNW,338,0.0,8.0,64,0.00,,CLR,0.00,VWS V14.01,2013-05-02 17:51:00,
2013-05-02 12:54:00,72.6,59.7,30.03,NNE,13,0.0,8.0,64,0.00,,CLR,0.00,VWS V14.01,2013-05-02 17:54:00,
2013-05-02 12:55:00,72.6,59.7,30.03,NNW,329,0.0,8.0,64,0.00,,CLR,0.00,VWS V14.01,2013-05-02 17:55:00,
2013-05-02 12:56:00,72.6,59.3,30.03,NNW,331,4.0,10.0,63,0.00,,CLR,0.00,VWS V14.01,2013-05-02 17:56:00,
2013-05-02 12:59:00,72.7,59.8,30.03,North,355,3.0,10.0,64,0.00,,CLR,0.00,VWS V14.01,2013-05-02 17:59:00,
2013-05-02 13:00:00,72.7,59.4,30.03,NNE,18,1.0,10.0,63,0.00,,CLR,0.00,VWS V14.01,2013-05-02 18:00:00,
2013-05-02 13:01:00,72.7,59.4,30.03,NNE,27,6.0,6.0,63,0.00,,SCT085,0.00,VWS V14.01,2013-05-02 18:01:00,
2013-05-02 13:04:00,72.7,59.4,30.03,NNW,342,0.0,7.0,63,0.00,,SCT085,0.00,VWS V14.01,2013-05-02 18:04:00,
2013-05-02 13:05:00,72.7,59.4,30.03,NNW,327,5.0,8.0,63,0.00,,SCT085,0.00,VWS V14.01,2013-05-02 18:05:00,
2013-05-02 13:06:00,72.9,60.0,30.03,NW,304,5.0,8.0,64,0.00,,SCT085,0.00,VWS V14.01,2013-05-02 18:06:00,
2013-05-02 13:09:00,73.4,59.6,30.03,NNW,331,4.0,8.0,62,0.00,,SCT085,0.00,VWS V14.01,2013-05-02 18:09:00,
2013-05-02 13:10:00,73.4,59.2,30.03,NNW,328,6.0,8.0,61,0.00,,SCT085,0.00,VWS V14.01,2013-05-02 18:10:00,
2013-05-02 13:12:00,73.4,59.6,30.03,NNW,342,6.0,9.0,62,0.00,,SCT085,0.00,VWS V14.01,2013-05-02 18:12:00,
2013-05-02 13:14:00,73.6,59.8,30.03,North,5,0.0,9.0,62,0.00,,SCT085,0.00,VWS V14.01,2013-05-02 18:14:00,
2013-05-02 13:15:00,73.6,59.8,30.02,WNW,299,2.0,9.0,62,0.00,,SCT085,0.00,VWS V14.01,2013-05-02 18:15:00,
2013-05-02 13:16:00,73.6,59.3,30.02,NNW,334,0.0,9.0,61,0.00,,SCT085,0.00,VWS V14.01,2013-05-02 18:16:00,
2013-05-02 13:17:00,73.8,60.0,30.02,NNW,338,6.0,9.0,62,0.00,,SCT085,0.00,VWS V14.01,2013-05-02 18:17:00,
2013-05-02 13:19:00,73.9,60.1,30.02,NW,315,6.0,10.0,62,0.00,,SCT085,0.00,VWS V14.01,2013-05-02 18:19:00,
2013-05-02 13:20:00,73.9,59.6,30.02,NW,317,5.0,10.0,61,0.00,,SCT085,0.00,VWS V14.01,2013-05-02 18:20:00,
2013-05-02 13:21:00,73.9,60.1,30.02,NNW,337,0.0,10.0,62,0.00,,SCT085,0.00,VWS V14.01,2013-05-02 18:21:00,
2013-05-02 13:22:00,74.1,60.3,30.02,NNW,327,1.0,10.0,62,0.00,,SCT085,0.00,VWS V14.01,2013-05-02 18:22:00,
2013-05-02 13:24:00,74.1,59.8,30.02,NNW,327,4.0,10.0,61,0.00,,SCT085,0.00,VWS V14.01,2013-05-02 18:24:00,
2013-05-02 13:25:00,74.1,59.3,30.02,NNW,344,0.0,10.0,60,0.00,,SCT085,0.00,VWS V14.01,2013-05-02 18:25:00,
2013-05-02 13:26:00,74.1,59.8,30.02,NNW,327,6.0,10.0,61,0.00,,SCT085,0.00,VWS V14.01,2013-05-02 18:26:00,
2013-05-02 13:27:00,74.1,59.3,30.02,NW,315,3.0,10.0,60,0.00,,SCT085,0.00,VWS V14.01,2013-05-02 18:27:00,
2013-05-02 13:29:00,74.3,59.5,30.02,WNW,286,0.0,10.0,60,0.00,,SCT085,0.00,VWS V14.01,2013-05-02 18:29:00,
2013-05-02 13:30:00,74.3,60.0,30.02,NW,304,0.0,10.0,61,0.00,,SCT085,0.00,VWS V14.01,2013-05-02 18:30:00,
2013-05-02 13:31:00,74.5,60.6,30.02,North,360,4.0,4.0,62,0.00,,SCT085,0.00,VWS V14.01,2013-05-02 18:31:00,
2013-05-02 13:33:00,75.0,60.7,30.02,NW,316,4.0,4.0,61,0.00,,SCT085,0.00,VWS V14.01,2013-05-02 18:33:00,
2013-05-02 13:34:00,75.2,60.4,30.02,NNW,333,0.0,5.0,60,0.00,,SCT085,0.00,VWS V14.01,2013-05-02 18:34:00,
2013-05-02 13:35:00,75.2,60.4,30.02,North,10,3.0,5.0,60,0.00,,SCT085,0.00,VWS V14.01,2013-05-02 18:35:00,
2013-05-02 13:36:00,75.2,60.4,30.02,North,5,0.0,5.0,60,0.00,,SCT085,0.00,VWS V14.01,2013-05-02 18:36:00,
2013-05-02 13:38:00,75.3,60.9,30.02,NNW,338,0.0,5.0,61,0.00,,SCT085,0.00,VWS V14.01,2013-05-02 18:38:00,
2013-05-02 13:39:00,75.3,60.0,30.02,NW,325,3.0,5.0,59,0.00,,SCT085,0.00,VWS V14.01,2013-05-02 18:39:00,
2013-05-02 13:40:00,75.3,60.5,30.02,North,5,6.0,9.0,60,0.00,,SCT085,0.00,VWS V14.01,2013-05-02 18:40:00,
2013-05-02 13:41:00,75.3,60.5,30.02,North,350,7.0,9.0,60,0.00,,SCT085,0.00,VWS V14.01,2013-05-02 18:41:00,
2013-05-02 13:43:00,75.0,59.2,30.02,NNW,347,4.0,11.0,58,0.00,,SCT085,0.00,VWS V14.01,2013-05-02 18:43:00,
2013-05-02 13:44:00,74.6,59.8,30.02,West,279,0.0,11.0,60,0.00,,SCT085,0.00,VWS V14.01,2013-05-02 18:44:00,
2013-05-02 13:46:00,74.6,60.3,30.02,NNW,332,0.0,11.0,61,0.00,,SCT085,0.00,VWS V14.01,2013-05-02 18:46:00,
2013-05-02 13:47:00,74.6,60.3,30.02,NW,307,4.0,11.0,61,0.00,,SCT085,0.00,VWS V14.01,2013-05-02 18:47:00,
2013-05-02 13:48:00,74.6,59.8,30.02,WNW,294,7.0,11.0,60,0.00,,SCT085,0.00,VWS V14.01,2013-05-02 18:48:00,
2013-05-02 13:49:00,74.5,59.7,30.02,NW,304,4.0,11.0,60,0.00,,SCT085,0.00,VWS V14.01,2013-05-02 18:49:00,
2013-05-02 13:51:00,74.5,59.7,30.02,WNW,297,0.0,11.0,60,0.00,,SCT085,0.00,VWS V14.01,2013-05-02 18:51:00,
2013-05-02 13:52:00,74.6,60.3,30.02,NW,311,3.0,11.0,61,0.00,,SCT085,0.00,VWS V14.01,2013-05-02 18:52:00,
2013-05-02 13:53:00,74.6,59.3,30.02,North,5,4.0,11.0,59,0.00,,SCT085,0.00,VWS V14.01,2013-05-02 18:53:00,
2013-05-02 13:55:00,74.6,59.3,30.02,NW,321,0.0,11.0,59,0.00,,SCT085,0.00,VWS V14.01,2013-05-02 18:55:00,
2013-05-02 13:56:00,74.6,59.8,30.02,North,360,3.0,11.0,60,0.00,,SCT085,0.00,VWS V14.01,2013-05-02 18:56:00,
2013-05-02 13:58:00,74.6,59.8,30.02,WNW,298,1.0,11.0,60,0.00,,SCT085,0.00,VWS V14.01,2013-05-02 18:58:00,
2013-05-02 14:00:00,74.8,59.5,30.00,NNW,341,0.0,11.0,59,0.00,,SCT085,0.00,VWS V14.01,2013-05-02 19:00:00,
2013-05-02 14:01:00,75.0,60.2,30.00,NW,304,2.0,2.0,60,0.00,,CLR,0.00,VWS V14.01,2013-05-02 19:01:00,
2013-05-02 14:03:00,75.0,59.7,30.00,NNW,329,0.0,5.0,59,0.00,,CLR,0.00,VWS V14.01,2013-05-02 19:03:00,
2013-05-02 14:05:00,75.3,60.0,30.00,NW,325,2.0,6.0,59,0.00,,CLR,0.00,VWS V14.01,2013-05-02 19:05:00,
2013-05-02 14:06:00,75.5,59.7,30.00,NNE,13,1.0,6.0,58,0.00,,CLR,0.00,VWS V14.01,2013-05-02 19:06:00,
2013-05-02 14:08:00,75.5,59.7,30.00,NE,34,0.0,8.0,58,0.00,,CLR,0.00,VWS V14.01,2013-05-02 19:08:00,
2013-05-02 14:10:00,75.2,59.4,30.00,NNW,348,2.0,8.0,58,0.00,,CLR,0.00,VWS V14.01,2013-05-02 19:10:00,
2013-05-02 14:12:00,75.2,59.4,30.00,NNW,333,0.0,8.0,58,0.00,,CLR,0.00,VWS V14.01,2013-05-02 19:12:00,
2013-05-02 14:13:00,75.3,60.5,30.00,WNW,303,0.0,8.0,60,0.00,,CLR,0.00,VWS V14.01,2013-05-02 19:13:00,
2013-05-02 14:16:00,75.5,60.2,30.01,NW,304,4.0,8.0,59,0.00,,CLR,0.00,VWS V14.01,2013-05-02 19:16:00,
2013-05-02 14:17:00,75.7,60.4,30.01,WNW,286,0.0,8.0,59,0.00,,CLR,0.00,VWS V14.01,2013-05-02 19:17:00,
2013-05-02 14:18:00,75.7,60.4,30.01,North,5,0.0,8.0,59,0.00,,CLR,0.00,VWS V14.01,2013-05-02 19:18:00,
2013-05-02 14:19:00,75.7,59.9,30.01,NNW,343,0.0,8.0,58,0.00,,CLR,0.00,VWS V14.01,2013-05-02 19:19:00,
2013-05-02 14:21:00,76.0,60.7,30.01,West,281,3.0,8.0,59,0.00,,CLR,0.00,VWS V14.01,2013-05-02 19:21:00,
2013-05-02 14:22:00,75.9,60.1,30.01,NW,305,0.0,8.0,58,0.00,,CLR,0.00,VWS V14.01,2013-05-02 19:22:00,
2013-05-02 14:23:00,75.9,60.1,30.01,West,259,3.0,8.0,58,0.00,,CLR,0.00,VWS V14.01,2013-05-02 19:23:00,
2013-05-02 14:24:00,75.9,60.1,30.01,WNW,289,2.0,8.0,58,0.00,,CLR,0.00,VWS V14.01,2013-05-02 19:24:00,
2013-05-02 14:26:00,75.7,59.9,30.01,NW,313,0.0,8.0,58,0.00,,CLR,0.00,VWS V14.01,2013-05-02 19:26:00,
2013-05-02 14:27:00,75.9,60.6,30.01,NW,317,5.0,8.0,59,0.00,,CLR,0.00,VWS V14.01,2013-05-02 19:27:00,
2013-05-02 14:28:00,75.7,59.9,30.01,WNW,289,8.0,9.0,58,0.00,,CLR,0.00,VWS V14.01,2013-05-02 19:28:00,
2013-05-02 14:29:00,75.7,59.9,30.01,WNW,298,5.0,9.0,58,0.00,,CLR,0.00,VWS V14.01,2013-05-02 19:29:00,
2013-05-02 14:30:00,75.7,59.9,30.00,NW,314,0.0,9.0,58,0.00,,,0.00,VWS V14.01,2013-05-02 19:30:00,
2013-05-02 14:32:00,75.9,60.6,30.00,WNW,303,4.0,8.0,59,0.00,,CLR,0.00,VWS V14.01,2013-05-02 19:32:00,
2013-05-02 14:33:00,76.0,60.2,30.00,WNW,302,0.0,8.0,58,0.00,,CLR,0.00,VWS V14.01,2013-05-02 19:33:00,
2013-05-02 14:34:00,76.2,60.4,30.00,West,279,0.0,8.0,58,0.00,,CLR,0.00,VWS V14.01,2013-05-02 19:34:00,
2013-05-02 14:35:00,76.4,60.5,30.00,NW,321,1.0,8.0,58,0.00,,CLR,0.00,VWS V14.01,2013-05-02 19:35:00,
2013-05-02 14:37:00,76.4,59.1,30.00,North,5,8.0,11.0,55,0.00,,CLR,0.00,VWS V14.01,2013-05-02 19:37:00,
2013-05-02 14:38:00,76.4,59.6,30.00,NNW,335,7.0,11.0,56,0.00,,CLR,0.00,VWS V14.01,2013-05-02 19:38:00,
2013-05-02 14:39:00,76.0,59.2,30.00,WNW,293,0.0,11.0,56,0.00,,CLR,0.00,VWS V14.01,2013-05-02 19:39:00,
2013-05-02 14:40:00,76.0,60.2,30.00,WNW,300,0.0,11.0,58,0.00,,CLR,0.00,VWS V14.01,2013-05-02 19:40:00,
2013-05-02 14:42:00,75.9,60.6,30.00,WNW,297,0.0,11.0,59,0.00,,CLR,0.00,VWS V14.01,2013-05-02 19:42:00,
2013-05-02 14:43:00,75.7,60.4,30.00,WNW,290,4.0,11.0,59,0.00,,CLR,0.00,VWS V14.01,2013-05-02 19:43:00,
2013-05-02 14:44:00,75.7,59.9,30.00,NW,306,10.0,15.0,58,0.00,,CLR,0.00,VWS V14.01,2013-05-02 19:44:00,
2013-05-02 14:45:00,75.5,59.7,30.00,NW,304,6.0,15.0,58,0.00,,CLR,0.00,VWS V14.01,2013-05-02 19:45:00,
2013-05-02 14:47:00,75.5,60.2,30.00,WNW,286,4.0,15.0,59,0.00,,CLR,0.00,VWS V14.01,2013-05-02 19:47:00,
2013-05-02 14:48:00,75.3,59.5,30.00,WNW,282,4.0,15.0,58,0.00,,CLR,0.00,VWS V14.01,2013-05-02 19:48:00,
2013-05-02 14:49:00,75.3,59.5,30.00,WNW,284,2.0,15.0,58,0.00,,CLR,0.00,VWS V14.01,2013-05-02 19:49:00,
2013-05-02 14:50:00,75.2,59.9,30.00,NW,306,9.0,15.0,59,0.00,,CLR,0.00,VWS V14.01,2013-05-02 19:50:00,
2013-05-02 14:52:00,75.2,59.9,30.00,West,277,6.0,15.0,59,0.00,,CLR,0.00,VWS V14.01,2013-05-02 19:52:00,
2013-05-02 14:53:00,75.2,59.4,30.00,WNW,298,1.0,15.0,58,0.00,,CLR,0.00,VWS V14.01,2013-05-02 19:53:00,
2013-05-02 14:54:00,75.0,59.2,30.00,NNW,330,1.0,15.0,58,0.00,,CLR,0.00,VWS V14.01,2013-05-02 19:54:00,
2013-05-02 14:55:00,75.0,59.2,30.00,WNW,286,6.0,15.0,58,0.00,,CLR,0.00,VWS V14.01,2013-05-02 19:55:00,
2013-05-02 14:58:00,74.8,59.5,30.00,NW,323,3.0,15.0,59,0.00,,CLR,0.00,VWS V14.01,2013-05-02 19:58:00,
2013-05-02 14:59:00,74.6,59.3,30.00,NW,324,5.0,15.0,59,0.00,,CLR,0.00,VWS V14.01,2013-05-02 19:59:00,
2013-05-02 15:00:00,74.3,58.6,30.00,NW,324,6.0,15.0,58,0.00,,CLR,0.00,VWS V14.01,2013-05-02 20:00:00,
2013-05-02 15:03:00,73.8,58.6,30.00,NNW,329,1.0,13.0,59,0.00,,CLR,0.00,VWS V14.01,2013-05-02 20:03:00,
2013-05-02 15:04:00,73.6,58.9,30.00,NW,322,5.0,13.0,60,0.00,,CLR,0.00,VWS V14.01,2013-05-02 20:04:00,
2013-05-02 15:05:00,73.6,58.9,30.00,NNW,332,5.0,13.0,60,0.00,,CLR,0.00,VWS V14.01,2013-05-02 20:05:00,
2013-05-02 15:08:00,73.2,58.5,30.00,NW,306,6.0,13.0,60,0.00,,CLR,0.00,VWS V14.01,2013-05-02 20:08:00,
2013-05-02 15:09:00,73.1,58.4,30.00,NNW,348,0.0,13.0,60,0.00,,CLR,0.00,VWS V14.01,2013-05-02 20:09:00,
2013-05-02 15:10:00,73.1,58.9,30.00,WNW,299,0.0,13.0,61,0.00,,CLR,0.00,VWS V14.01,2013-05-02 20:10:00,
2013-05-02 15:11:00,73.1,58.9,30.00,NNW,327,3.0,13.0,61,0.00,,CLR,0.00,VWS V14.01,2013-05-02 20:11:00,
2013-05-02 15:13:00,72.9,58.2,30.00,WNW,284,0.0,13.0,60,0.00,,CLR,0.00,VWS V14.01,2013-05-02 20:13:00,
2013-05-02 15:14:00,72.9,58.7,30.00,NW,323,9.0,13.0,61,0.00,,CLR,0.00,VWS V14.01,2013-05-02 20:14:00,
2013-05-02 15:15:00,72.7,58.5,30.00,NW,320,5.0,13.0,61,0.00,,SCT055,0.00,VWS V14.01,2013-05-02 20:15:00,
2013-05-02 15:16:00,72.7,58.5,30.00,NW,315,5.0,13.0,61,0.00,,SCT055,0.00,VWS V14.01,2013-05-02 20:16:00,
2013-05-02 15:18:00,72.9,58.7,30.00,WNW,288,5.0,13.0,61,0.00,,SCT055,0.00,VWS V14.01,2013-05-02 20:18:00,
2013-05-02 15:19:00,73.1,58.9,30.00,NW,312,5.0,13.0,61,0.00,,SCT055,0.00,VWS V14.01,2013-05-02 20:19:00,
2013-05-02 15:20:00,73.1,58.4,30.00,NW,309,4.0,13.0,60,0.00,,SCT055,0.00,VWS V14.01,2013-05-02 20:20:00,
2013-05-02 15:21:00,73.1,58.4,30.00,NW,314,3.0,13.0,60,0.00,,SCT055,0.00,VWS V14.01,2013-05-02 20:21:00,
2013-05-02 15:24:00,73.2,59.0,30.00,NW,314,10.0,13.0,61,0.00,,SCT055,0.00,VWS V14.01,2013-05-02 20:24:00,
2013-05-02 15:25:00,73.2,59.0,30.00,NW,326,9.0,13.0,61,0.00,,SCT055,0.00,VWS V14.01,2013-05-02 20:25:00,
2013-05-02 15:26:00,73.4,58.7,30.00,NW,315,8.0,13.0,60,0.00,,SCT055,0.00,VWS V14.01,2013-05-02 20:26:00,
2013-05-02 15:29:00,73.8,58.6,30.00,NNW,327,9.0,13.0,59,0.00,,SCT055,0.00,VWS V14.01,2013-05-02 20:29:00,
2013-05-02 15:30:00,73.8,58.6,29.99,NW,306,5.0,13.0,59,0.00,,SCT055,0.00,VWS V14.01,2013-05-02 20:30:00,
2013-05-02 15:31:00,73.9,58.7,29.99,NW,325,1.0,1.0,59,0.00,,SCT055,0.00,VWS V14.01,2013-05-02 20:31:00,
2013-05-02 15:34:00,74.1,57.4,29.99,NNW,348,7.0,13.0,56,0.00,,SCT055,0.00,VWS V14.01,2013-05-02 20:34:00,
2013-05-02 15:35:00,74.1,57.4,29.99,WSW,244,4.0,13.0,56,0.00,,SCT055,0.00,VWS V14.01,2013-05-02 20:35:00,
2013-05-02 15:36:00,74.1,57.9,29.99,NW,317,6.0,13.0,57,0.00,,SCT055,0.00,VWS V14.01,2013-05-02 20:36:00,
2013-05-02 15:39:00,74.3,58.1,29.99,NNW,335,6.0,13.0,57,0.00,,SCT055,0.00,VWS V14.01,2013-05-02 20:39:00,
2013-05-02 15:40:00,74.5,58.3,29.99,WNW,288,5.0,16.0,57,0.00,,SCT055,0.00,VWS V14.01,2013-05-02 20:40:00,
2013-05-02 15:41:00,74.1,57.9,29.99,WNW,283,5.0,16.0,57,0.00,,SCT055,0.00,VWS V14.01,2013-05-02 20:41:00,
2013-05-02 15:44:00,73.6,57.9,29.99,NW,312,2.0,16.0,58,0.00,,SCT055,0.00,VWS V14.01,2013-05-02 20:44:00,
2013-05-02 15:45:00,73.6,57.9,29.99,NNW,348,4.0,16.0,58,0.00,,SCT055,0.00,VWS V14.01,2013-05-02 20:45:00,
2013-05-02 15:46:00,73.6,57.9,29.99,NW,311,0.0,16.0,58,0.00,,SCT055,0.00,VWS V14.01,2013-05-02 20:46:00,
2013-05-02 15:49:00,73.2,57.5,29.99,WNW,293,2.0,16.0,58,0.00,,SCT055,0.00,VWS V14.01,2013-05-02 20:49:00,
2013-05-02 15:50:00,73.2,57.5,29.99,NNW,336,3.0,16.0,58,0.00,,SCT055,0.00,VWS V14.01,2013-05-02 20:50:00,
2013-05-02 15:51:00,73.1,57.9,29.99,NW,322,0.0,16.0,59,0.00,,SCT055,0.00,VWS V14.01,2013-05-02 20:51:00,
2013-05-02 15:52:00,73.1,57.9,29.99,NNW,348,1.0,16.0,59,0.00,,SCT055,0.00,VWS V14.01,2013-05-02 20:52:00,
2013-05-02 15:54:00,72.6,57.5,29.99,NW,322,0.0,16.0,59,0.00,,SCT055,0.00,VWS V14.01,2013-05-02 20:54:00,
2013-05-02 15:55:00,72.6,57.0,29.99,WNW,286,0.0,16.0,58,0.00,,SCT055,0.00,VWS V14.01,2013-05-02 20:55:00,
2013-05-02 15:56:00,72.4,57.3,29.99,NW,306,3.0,16.0,59,0.00,,SCT055,0.00,VWS V14.01,2013-05-02 20:56:00,
2013-05-02 15:57:00,72.2,57.6,29.99,NW,326,5.0,16.0,60,0.00,,SCT055,0.00,VWS V14.01,2013-05-02 20:57:00,
2013-05-02 16:00:00,71.9,57.7,29.99,NNW,342,3.0,16.0,61,0.00,,SCT055,0.00,VWS V14.01,2013-05-02 21:00:00,
2013-05-02 16:01:00,71.7,57.5,29.99,WNW,292,3.0,16.0,61,0.00,,SCT055,0.00,VWS V14.01,2013-05-02 21:01:00,
2013-05-02 16:02:00,71.5,57.4,29.99,NW,314,6.0,11.0,61,0.00,,SCT075,0.00,VWS V14.01,2013-05-02 21:02:00,
2013-05-02 16:05:00,71.2,57.5,29.99,North,350,11.0,12.0,62,0.00,,SCT075,0.00,VWS V14.01,2013-05-02 21:05:00,
2013-05-02 16:06:00,71.0,56.9,29.99,NW,314,6.0,12.0,61,0.00,,SCT075,0.00,VWS V14.01,2013-05-02 21:06:00,
2013-05-02 16:07:00,70.8,56.7,29.99,NW,315,5.0,12.0,61,0.00,,SCT075,0.00,VWS V14.01,2013-05-02 21:07:00,
2013-05-02 16:10:00,70.5,56.9,29.99,WNW,300,7.0,12.0,62,0.00,,SCT075,0.00,VWS V14.01,2013-05-02 21:10:00,
2013-05-02 16:11:00,70.3,56.7,29.99,West,265,2.0,12.0,62,0.00,,SCT075,0.00,VWS V14.01,2013-05-02 21:11:00,
2013-05-02 16:12:00,70.3,56.7,29.99,West,265,2.0,12.0,62,0.00,,SCT075,0.00,VWS V14.01,2013-05-02 21:12:00,
2013-05-02 16:15:00,70.0,56.0,30.00,NW,313,12.0,12.0,61,0.00,,SCT075,0.00,VWS V14.01,2013-05-02 21:15:00,
2013-05-02 16:16:00,69.8,55.8,30.00,WNW,298,4.0,12.0,61,0.00,,SCT075,0.00,VWS V14.01,2013-05-02 21:16:00,
2013-05-02 16:17:00,69.8,56.2,30.00,WNW,301,0.0,12.0,62,0.00,,SCT075,0.00,VWS V14.01,2013-05-02 21:17:00,
2013-05-02 16:20:00,69.7,56.1,30.00,NW,313,0.0,12.0,62,0.00,,SCT075,0.00,VWS V14.01,2013-05-02 21:20:00,
2013-05-02 16:21:00,69.7,56.1,30.00,WNW,298,0.0,12.0,62,0.00,,SCT075,0.00,VWS V14.01,2013-05-02 21:21:00,
2013-05-02 16:22:00,69.5,55.9,30.00,WNW,284,0.0,12.0,62,0.00,,SCT075,0.00,VWS V14.01,2013-05-02 21:22:00,
2013-05-02 16:25:00,69.3,55.7,30.00,NW,323,2.0,12.0,62,0.00,,SCT075,0.00,VWS V14.01,2013-05-02 21:25:00,
2013-05-02 16:26:00,69.3,56.2,30.00,NW,307,2.0,12.0,63,0.00,,SCT075,0.00,VWS V14.01,2013-05-02 21:26:00,
2013-05-02 16:27:00,69.3,55.7,30.00,NW,306,0.0,12.0,62,0.00,,SCT075,0.00,VWS V14.01,2013-05-02 21:27:00,
2013-05-02 16:30:00,69.0,55.9,30.01,NW,326,3.0,12.0,63,0.00,,SCT075,0.00,VWS V14.01,2013-05-02 21:30:00,
2013-05-02 16:31:00,69.0,55.9,30.01,NW,306,3.0,4.0,63,0.00,,SCT075,0.00,VWS V14.01,2013-05-02 21:31:00,
2013-05-02 16:32:00,69.0,55.9,30.01,West,276,0.0,5.0,63,0.00,,SCT075,0.00,VWS V14.01,2013-05-02 21:32:00,
2013-05-02 16:33:00,68.8,55.7,30.01,NW,309,0.0,6.0,63,0.00,,SCT075,0.00,VWS V14.01,2013-05-02 21:33:00,
2013-05-02 16:36:00,68.7,56.0,30.01,WNW,297,0.0,7.0,64,0.00,,SCT075,0.00,VWS V14.01,2013-05-02 21:36:00,
2013-05-02 16:37:00,68.7,56.5,30.01,NW,305,0.0,7.0,65,0.00,,SCT075,0.00,VWS V14.01,2013-05-02 21:37:00,
2013-05-02 16:38:00,68.7,56.0,30.01,WNW,291,0.0,7.0,64,0.00,,SCT075,0.00,VWS V14.01,2013-05-02 21:38:00,
2013-05-02 16:41:00,68.3,56.9,30.01,NNW,333,5.0,15.0,67,0.00,,SCT075,0.00,VWS V14.01,2013-05-02 21:41:00,
2013-05-02 16:42:00,68.0,56.2,30.01,North,351,5.0,15.0,66,0.00,,SCT075,0.00,VWS V14.01,2013-05-02 21:42:00,
2013-05-02 16:44:00,67.7,57.2,30.01,NW,313,0.0,15.0,69,0.00,,SCT075,0.00,VWS V14.01,2013-05-02 21:44:00,
2013-05-02 16:46:00,67.3,57.2,30.00,North,5,7.0,15.0,70,0.00,,SCT075,0.00,VWS V14.01,2013-05-02 21:46:00,
2013-05-02 16:47:00,67.0,56.9,30.00,NW,315,0.0,15.0,70,0.00,,SCT075,0.00,VWS V14.01,2013-05-02 21:47:00,
2013-05-02 16:48:00,66.8,56.7,30.00,WNW,297,0.0,15.0,70,0.00,,SCT075,0.00,VWS V14.01,2013-05-02 21:48:00,
2013-05-02 16:49:00,66.5,56.8,30.00,NNW,339,2.0,15.0,71,0.00,,SCT075,0.00,VWS V14.01,2013-05-02 21:49:00,
2013-05-02 16:51:00,66.2,56.9,30.00,NW,326,0.0,15.0,72,0.00,,SCT075,0.00,VWS V14.01,2013-05-02 21:51:00,
2013-05-02 16:52:00,66.0,56.7,30.00,WNW,296,3.0,15.0,72,0.00,,SCT075,0.00,VWS V14.01,2013-05-02 21:52:00,
2013-05-02 16:53:00,65.9,57.0,30.00,NW,311,0.0,15.0,73,0.00,,SCT075,0.00,VWS V14.01,2013-05-02 21:53:00,
2013-05-02 16:54:00,65.7,56.8,30.00,NW,321,0.0,15.0,73,0.00,,SCT075,0.00,VWS V14.01,2013-05-02 21:54:00,
2013-05-02 16:56:00,65.4,56.9,30.00,WNW,288,0.0,15.0,74,0.00,,SCT075,0.00,VWS V14.01,2013-05-02 21:56:00,
2013-05-02 16:57:00,65.2,56.7,30.00,NW,304,5.0,15.0,74,0.00,,SCT075,0.00,VWS V14.01,2013-05-02 21:57:00,
2013-05-02 16:58:00,65.1,56.6,30.00,WNW,286,3.0,15.0,74,0.00,,SCT075,0.00,VWS V14.01,2013-05-02 21:58:00,
2013-05-02 16:59:00,65.1,56.6,30.00,NW,311,0.0,15.0,74,0.01,,SCT075,0.01,VWS V14.01,2013-05-02 21:59:00,
2013-05-02 17:00:00,64.9,56.8,30.00,NNW,329,6.0,15.0,75,0.01,,,0.01,VWS V14.01,2013-05-02 22:00:00,
2013-05-02 17:01:00,64.7,56.6,30.00,NW,309,5.0,6.0,75,0.01,,BKN085,0.01,VWS V14.01,2013-05-02 22:01:00,
2013-05-02 17:02:00,64.6,56.9,30.00,NW,309,0.0,6.0,76,0.01,,BKN085,0.01,VWS V14.01,2013-05-02 22:02:00,
2013-05-02 17:04:00,64.4,57.0,30.00,NW,308,0.0,6.0,77,0.01,,BKN085,0.01,VWS V14.01,2013-05-02 22:04:00,
2013-05-02 17:06:00,64.2,57.2,30.00,WNW,282,0.0,6.0,78,0.01,,BKN085,0.01,VWS V14.01,2013-05-02 22:06:00,
2013-05-02 17:07:00,64.1,57.5,30.00,NW,317,0.0,6.0,79,0.01,,BKN085,0.01,VWS V14.01,2013-05-02 22:07:00,
2013-05-02 17:08:00,64.1,57.5,30.00,NW,317,0.0,6.0,79,0.01,,BKN085,0.01,VWS V14.01,2013-05-02 22:08:00,
2013-05-02 17:09:00,63.9,57.3,30.00,NW,321,3.0,6.0,79,0.01,,BKN085,0.01,VWS V14.01,2013-05-02 22:09:00,
2013-05-02 17:11:00,63.8,57.5,30.00,WNW,297,0.0,6.0,80,0.02,,BKN085,0.02,VWS V14.01,2013-05-02 22:11:00,
2013-05-02 17:30:00,63.7,57.8,30.01,NW,315,0.0,9.0,81,0.03,,,0.03,VWS V14.01,2013-05-02 22:30:00,
2013-05-02 18:00:00,62.3,55.0,30.01,NW,315,2.0,12.0,77,0.04,,,0.04,VWS V14.01,2013-05-02 23:00:00,
2013-05-02 18:30:00,60.9,52.2,30.03,NW,315,2.0,14.0,73,0.03,,,0.04,VWS V14.01,2013-05-02 23:30:00,
2013-05-02 19:00:00,59.0,53.2,30.05,NW,315,2.0,15.0,81,0.03,,,0.06,VWS V14.01,2013-05-03 00:00:00,
2013-05-02 19:30:00,55.5,51.1,30.05,NW,315,3.0,16.0,85,0.08,,,0.12,VWS V14.01,2013-05-03 00:30:00,
2013-05-02 20:00:00,54.0,50.5,30.04,NW,315,3.0,15.0,88,0.11,,,0.15,VWS V14.01,2013-05-03 01:00:00,
2013-05-02 20:30:00,52.7,49.2,30.04,NW,315,4.0,16.0,88,0.12,,,0.18,VWS V14.01,2013-05-03 01:30:00,
2013-05-02 21:00:00,54.0,50.5,30.04,NW,315,3.0,15.0,88,0.11,,CLR,0.15,VWS V14.01,2013-05-03 02:00:00,
2013-05-02 21:24:00,52.7,49.2,30.04,NW,315,4.0,16.0,88,0.12,,,0.18,VWS V14.01,2013-05-03 02:24:00,
2013-05-02 21:29:00,50.3,47.2,30.05,WNW,289,4.0,12.0,89,0.08,,,0.20,VWS V14.01,2013-05-03 02:29:00,
2013-05-02 21:30:00,50.1,47.0,30.06,WNW,297,5.0,12.0,89,0.08,,,0.20,VWS V14.01,2013-05-03 02:30:00,
2013-05-02 21:34:00,50.0,46.9,30.06,NW,304,0.0,12.0,89,0.02,,RA,0.20,VWS V14.01,2013-05-03 02:34:00,
2013-05-02 21:39:00,49.8,46.7,30.06,NW,323,0.0,12.0,89,0.03,,RA,0.21,VWS V14.01,2013-05-03 02:39:00,
2013-05-02 21:44:00,49.5,46.4,30.06,NNW,336,6.0,14.0,89,0.03,,RA,0.21,VWS V14.01,2013-05-03 02:44:00,
2013-05-02 21:45:00,49.5,46.4,30.06,NNW,332,0.0,14.0,89,0.03,,RA,0.21,VWS V14.01,2013-05-03 02:45:00,
2013-05-02 21:49:00,49.5,46.4,30.06,NNW,343,1.0,14.0,89,0.03,,RA,0.21,VWS V14.01,2013-05-03 02:49:00,
2013-05-02 21:50:00,49.5,46.4,30.06,WNW,303,0.0,14.0,89,0.03,,RA,0.21,VWS V14.01,2013-05-03 02:50:00,
2013-05-02 21:54:00,49.4,46.6,30.06,WNW,302,2.0,14.0,90,0.03,,RA,0.21,VWS V14.01,2013-05-03 02:54:00,
2013-05-02 21:55:00,49.4,46.6,30.06,WNW,288,7.0,14.0,90,0.03,,RA,0.21,VWS V14.01,2013-05-03 02:55:00,
2013-05-02 21:59:00,49.3,46.5,30.06,West,279,0.0,14.0,90,0.04,,RA,0.22,VWS V14.01,2013-05-03 02:59:00,
2013-05-02 22:00:00,49.3,46.5,30.05,NNW,328,0.0,14.0,90,0.04,,RA,0.22,VWS V14.01,2013-05-03 03:00:00,
2013-05-02 22:04:00,49.1,46.3,30.05,NW,319,1.0,4.0,90,0.02,,RA,0.22,VWS V14.01,2013-05-03 03:04:00,
2013-05-02 22:05:00,49.1,46.3,30.05,NW,325,4.0,5.0,90,0.02,,RA,0.22,VWS V14.01,2013-05-03 03:05:00,
2013-05-02 22:06:00,49.1,46.3,30.05,NNW,331,0.0,5.0,90,0.02,,RA,0.22,VWS V14.01,2013-05-03 03:06:00,
2013-05-02 22:09:00,49.0,46.2,30.05,NNW,343,1.0,5.0,90,0.02,,RA,0.22,VWS V14.01,2013-05-03 03:09:00,
2013-05-02 22:10:00,49.0,46.2,30.05,WNW,302,9.0,14.0,90,0.02,,RA,0.22,VWS V14.01,2013-05-03 03:10:00,
2013-05-02 22:11:00,48.8,46.0,30.05,WNW,294,1.0,14.0,90,0.02,,RA,0.22,VWS V14.01,2013-05-03 03:11:00,
2013-05-02 22:14:00,48.8,46.0,30.05,WNW,298,1.0,14.0,90,0.02,,RA,0.22,VWS V14.01,2013-05-03 03:14:00,
2013-05-02 22:15:00,48.8,46.0,30.05,NW,307,5.0,14.0,90,0.02,,RA,0.22,VWS V14.01,2013-05-03 03:15:00,
2013-05-02 22:16:00,48.8,46.0,30.05,WNW,286,4.0,14.0,90,0.02,,RA,0.22,VWS V14.01,2013-05-03 03:16:00,
2013-05-02 22:20:00,48.5,45.7,30.05,NW,313,14.0,15.0,90,0.02,,RA,0.22,VWS V14.01,2013-05-03 03:20:00,
2013-05-02 22:21:00,48.4,45.6,30.05,WNW,301,0.0,15.0,90,0.03,,RA,0.23,VWS V14.01,2013-05-03 03:21:00,
2013-05-02 22:25:00,48.4,45.6,30.05,NNW,335,0.0,15.0,90,0.03,,RA,0.23,VWS V14.01,2013-05-03 03:25:00,
2013-05-02 22:26:00,48.4,45.6,30.05,North,360,4.0,15.0,90,0.03,,RA,0.23,VWS V14.01,2013-05-03 03:26:00,
2013-05-02 22:30:00,48.2,45.4,30.05,NW,319,8.0,15.0,90,0.03,,RA,0.23,VWS V14.01,2013-05-03 03:30:00,
2013-05-02 22:31:00,48.2,45.4,30.05,NW,308,4.0,11.0,90,0.03,,RA,0.23,VWS V14.01,2013-05-03 03:31:00,
2013-05-02 22:32:00,48.2,45.4,30.05,NNW,330,7.0,11.0,90,0.03,,RA,0.23,VWS V14.01,2013-05-03 03:32:00,
2013-05-02 22:35:00,48.1,45.3,30.05,WNW,290,3.0,12.0,90,0.04,,RA,0.24,VWS V14.01,2013-05-03 03:35:00,
2013-05-02 22:36:00,48.1,45.3,30.05,NNW,342,9.0,12.0,90,0.04,,RA,0.24,VWS V14.01,2013-05-03 03:36:00,
2013-05-02 22:37:00,48.1,45.3,30.05,NNW,330,5.0,12.0,90,0.04,,RA,0.24,VWS V14.01,2013-05-03 03:37:00,
2013-05-02 22:40:00,47.9,45.4,30.05,NW,309,9.0,14.0,91,0.04,,RA,0.24,VWS V14.01,2013-05-03 03:40:00,
2013-05-02 22:41:00,47.9,45.4,30.05,NW,319,7.0,14.0,91,0.04,,RA,0.24,VWS V14.01,2013-05-03 03:41:00,
2013-05-02 22:42:00,47.9,45.1,30.05,NNW,332,2.0,14.0,90,0.04,,RA,0.24,VWS V14.01,2013-05-03 03:42:00,
2013-05-02 22:43:00,47.9,45.1,30.05,NW,318,5.0,14.0,90,0.04,,RA,0.24,VWS V14.01,2013-05-03 03:43:00,
2013-05-02 22:45:00,47.8,45.0,30.04,NNW,333,12.0,14.0,90,0.04,,-RA,0.24,VWS V14.01,2013-05-03 03:45:00,
2013-05-02 22:46:00,47.8,45.0,30.04,NNW,336,8.0,14.0,90,0.04,,-RA,0.24,VWS V14.01,2013-05-03 03:46:00,
2013-05-02 22:47:00,47.8,45.0,30.04,NNW,342,0.0,14.0,90,0.04,,-RA,0.24,VWS V14.01,2013-05-03 03:47:00,
2013-05-02 22:48:00,47.8,45.0,30.04,NW,315,6.0,14.0,90,0.04,,-RA,0.24,VWS V14.01,2013-05-03 03:48:00,
2013-05-02 22:50:00,47.6,45.1,30.04,NNW,346,2.0,14.0,91,0.04,,-RA,0.24,VWS V14.01,2013-05-03 03:50:00,
2013-05-02 22:51:00,47.6,45.1,30.04,NNW,327,9.0,14.0,91,0.04,,-RA,0.24,VWS V14.01,2013-05-03 03:51:00,
2013-05-02 22:52:00,47.6,45.1,30.04,North,355,3.0,14.0,91,0.05,,-RA,0.25,VWS V14.01,2013-05-03 03:52:00,
2013-05-02 22:53:00,47.6,44.8,30.04,NW,305,0.0,14.0,90,0.05,,-RA,0.25,VWS V14.01,2013-05-03 03:53:00,
2013-05-02 22:56:00,47.6,45.1,30.04,North,355,2.0,14.0,91,0.05,,-RA,0.25,VWS V14.01,2013-05-03 03:56:00,
2013-05-02 22:57:00,47.6,45.1,30.04,North,355,3.0,14.0,91,0.05,,-RA,0.25,VWS V14.01,2013-05-03 03:57:00,
2013-05-02 22:59:00,47.5,45.0,30.04,NNW,335,9.0,14.0,91,0.05,,-RA,0.25,VWS V14.01,2013-05-03 03:59:00,
2013-05-02 23:00:00,47.5,45.0,30.04,WNW,300,1.0,14.0,91,0.05,,,0.25,VWS V14.01,2013-05-03 04:00:00,
2013-05-02 23:01:00,47.5,45.0,30.04,WNW,292,1.0,1.0,91,0.03,,-RA,0.25,VWS V14.01,2013-05-03 04:01:00,
2013-05-02 23:06:00,47.5,45.0,30.04,NNW,330,12.0,15.0,91,0.03,,-RA,0.25,VWS V14.01,2013-05-03 04:06:00,
2013-05-02 23:11:00,47.3,44.8,30.04,NW,309,0.0,15.0,91,0.04,,-RA,0.26,VWS V14.01,2013-05-03 04:11:00,
2013-05-02 23:12:00,47.3,44.8,30.04,NW,309,6.0,15.0,91,0.04,,-RA,0.26,VWS V14.01,2013-05-03 04:12:00,
2013-05-02 23:16:00,47.2,44.7,30.04,NW,321,0.0,15.0,91,0.04,,-RA,0.26,VWS V14.01,2013-05-03 04:16:00,
2013-05-02 23:17:00,47.2,44.7,30.04,NW,319,1.0,15.0,91,0.04,,-RA,0.26,VWS V14.01,2013-05-03 04:17:00,
2013-05-02 23:21:00,47.2,44.7,30.04,NW,312,4.0,15.0,91,0.04,,-RA,0.26,VWS V14.01,2013-05-03 04:21:00,
2013-05-02 23:22:00,47.2,44.7,30.04,NNW,330,0.0,15.0,91,0.04,,-RA,0.26,VWS V14.01,2013-05-03 04:22:00,
2013-05-02 23:23:00,47.2,44.7,30.04,WNW,290,0.0,15.0,91,0.04,,-RA,0.26,VWS V14.01,2013-05-03 04:23:00,
2013-05-02 23:26:00,47.2,44.7,30.04,WNW,301,6.0,15.0,91,0.04,,-RA,0.26,VWS V14.01,2013-05-03 04:26:00,
2013-05-02 23:27:00,47.2,44.7,30.04,NW,307,0.0,15.0,91,0.04,,-RA,0.26,VWS V14.01,2013-05-03 04:27:00,
2013-05-02 23:28:00,47.2,44.7,30.04,NNW,341,1.0,15.0,91,0.04,,-RA,0.26,VWS V14.01,2013-05-03 04:28:00,
2013-05-02 23:30:00,47.0,44.5,30.03,NNW,336,0.0,15.0,91,0.05,,,0.27,VWS V14.01,2013-05-03 04:30:00,
2013-05-02 23:31:00,47.0,44.5,30.03,WNW,283,0.0,2.0,91,0.04,,-RA,0.27,VWS V14.01,2013-05-03 04:31:00,
2013-05-02 23:32:00,47.0,44.5,30.03,NNW,333,7.0,7.0,91,0.04,,-RA,0.27,VWS V14.01,2013-05-03 04:32:00,
2013-05-02 23:33:00,47.0,44.5,30.03,NW,314,0.0,7.0,91,0.04,,-RA,0.27,VWS V14.01,2013-05-03 04:33:00,
2013-05-02 23:36:00,47.0,44.8,30.03,WNW,296,5.0,7.0,92,0.04,,-RA,0.27,VWS V14.01,2013-05-03 04:36:00,
2013-05-02 23:37:00,47.0,44.8,30.03,WNW,298,0.0,7.0,92,0.04,,-RA,0.27,VWS V14.01,2013-05-03 04:37:00,
2013-05-02 23:38:00,47.0,44.5,30.03,WNW,301,4.0,11.0,91,0.04,,-RA,0.27,VWS V14.01,2013-05-03 04:38:00,
2013-05-02 23:42:00,47.0,44.8,30.03,WNW,296,0.0,13.0,92,0.04,,-RA,0.27,VWS V14.01,2013-05-03 04:42:00,
2013-05-02 23:43:00,47.0,44.8,30.03,NW,307,0.0,13.0,92,0.05,,-RA,0.28,VWS V14.01,2013-05-03 04:43:00,
2013-05-02 23:47:00,47.0,44.8,30.03,West,273,0.0,13.0,92,0.05,,RA,0.28,VWS V14.01,2013-05-03 04:47:00,
2013-05-02 23:48:00,47.0,44.8,30.03,NW,306,1.0,13.0,92,0.05,,RA,0.28,VWS V14.01,2013-05-03 04:48:00,
2013-05-02 23:52:00,46.9,44.7,30.03,NW,317,0.0,13.0,92,0.05,,RA,0.28,VWS V14.01,2013-05-03 04:52:00,
2013-05-02 23:54:00,47.0,44.8,30.03,NW,316,6.0,13.0,92,0.05,,RA,0.28,VWS V14.01,2013-05-03 04:54:00,
2013-05-02 23:57:00,46.9,44.7,30.03,NNW,343,2.0,13.0,92,0.05,,RA,0.28,VWS V14.01,2013-05-03 04:57:00,
2013-05-02 23:58:00,46.9,44.7,30.03,WNW,297,0.0,13.0,92,0.05,,RA,0.28,VWS V14.01,2013-05-03 04:58:00,
2013-05-02 23:59:00,46.9,44.7,30.03,NW,307,9.0,13.0,92,0.05,,RA,0.28,VWS V14.01,2013-05-03 04:59:00,